[{"header": {"dx": 0.06612293990616946, "dy": 0.0552356325346848, "nx": 98, "ny": 59, "la1": 35.046912555036876, "la2": 31.78801023549047, "lo1": -121.43107172385933, "lo2": -114.95102361305473, "refTime": "2026041712", "parameterCategory": 1, "parameterNumber": 2}, "data": [6.81, 5.8, 4.45, 4.34, 2.47, 2.34, 2.28, 2.21, 0.0, 0.0, -12.79, -11.99, -11.09, -11.12, -10.8, -9.67, -10.09, -10.27, -11.46, -12.52, -12.96, -12.04, -9.67, -8.73, -7.9, -6.97, -7.24, -5.6, -3.82, -0.0, -0.0, 4.1, 6.94, 7.9, 9.2, 9.83, 9.39, 9.39, -0.0, -2.49, -4.4, -7.9, -11.62, -11.2, -7.0, 0.0, 0.0, -7.92, -10.66, -7.69, -7.1, -6.6, -4.81, -4.95, -8.05, -8.05, -5.81, -7.0, -7.0, -4.95, -4.95, -7.0, -6.8, -10.75, 0.0, 11.06, 15.27, 16.09, 16.09, 15.87, 15.93, 15.53, 15.65, 15.65, 15.65, 15.65, 14.75, 14.3, 14.68, 14.31, 13.75, 13.28, 12.3, 11.62, 10.35, 10.79, 11.71, 11.18, 11.18, 10.46, 10.79, 9.31, 4.05, 0.0, -2.43, -2.02, -3.25, -3.14, 7.58, 6.81, 7.44, 6.28, 6.12, 4.12, 3.9, 3.79, 2.15, 0.0, -11.53, -13.99, -11.16, -8.85, -9.17, -10.8, -8.93, -11.45, -11.91, -11.51, -13.23, -12.96, -12.71, -10.37, -7.59, -6.71, -6.97, -7.24, -6.7, -11.2, -10.12, -0.0, -0.0, -0.0, 5.69, 8.94, 8.05, 8.94, -0.0, -0.0, -3.96, -13.41, -9.17, 0.0, 0.0, -3.82, -4.19, -6.36, -6.2, -7.32, -7.32, -5.99, -6.8, -6.8, -9.49, -9.39, -9.39, -8.43, -7.0, 0.0, 0.0, 0.0, 15.2, 15.2, 15.2, 15.65, 16.09, 16.09, 16.09, 15.87, 15.9, 15.47, 15.93, 15.2, 15.05, 14.64, 14.64, 14.3, 14.68, 14.31, 13.75, 13.28, 12.3, 11.62, 10.35, 10.79, 11.71, 11.18, 11.18, 10.46, 10.79, 9.31, 4.05, 0.0, -2.43, -2.02, -3.25, -3.14, 7.05, 8.2, 8.2, 7.26, 7.26, 5.51, 5.23, 5.65, 3.69, 0.0, -7.93, -10.37, -7.69, -4.1, 0.0, -5.2, -10.4, -11.18, -11.61, -12.79, -11.51, -12.35, -12.52, -13.41, -12.39, -7.59, -6.44, -6.44, -7.9, -11.03, -14.75, -15.2, -14.3, -11.18, -6.01, 8.94, 8.49, 8.94, 9.83, -0.0, 12.07, -4.66, -3.51, 0.0, 0.0, -3.53, -2.87, -3.68, -5.81, -7.54, -7.54, -7.54, -6.8, -9.12, -11.8, -12.65, -10.75, -7.0, 0.0, 0.0, 11.06, 15.2, 15.2, -0.0, 6.8, 11.06, 15.65, 15.65, 15.34, 13.8, 14.39, 14.79, 15.18, 15.2, 14.6, 13.81, 13.59, 14.9, 13.8, 13.99, 13.15, 12.33, 11.92, 10.8, 9.3, 10.79, 11.18, 11.18, 11.09, 11.39, 12.65, 10.89, 8.28, 0.0, -6.6, -6.2, -4.81, -3.96, 8.2, 8.78, 9.43, 9.2, 8.0, 7.08, 6.9, 5.23, 3.39, 2.09, 0.0, -5.15, -5.31, -2.45, 0.0, 0.0, -5.2, -11.21, -11.35, -12.0, -11.18, -11.18, -11.02, -11.09, -12.07, -12.58, -8.23, -6.95, -5.46, -10.6, -11.71, -12.39, -15.34, -15.65, -11.2, -7.59, -7.27, -0.0, 12.52, 9.8, 7.4, 3.16, 0.0, 0.0, 0.0, 0.0, -2.72, -2.35, -4.66, -7.59, -8.18, -9.49, -8.85, -8.18, -13.19, -13.19, -13.59, -11.06, 0.0, 11.06, 13.59, 15.2, 14.75, 6.6, 6.6, 13.59, 15.65, 15.65, 17.43, 15.99, 15.77, 15.43, 15.55, 14.75, 14.3, 13.53, 12.51, 12.65, 13.59, 11.53, 10.73, 10.18, 10.55, 9.08, 7.9, 9.67, 12.07, 11.51, 10.5, 12.86, 13.23, 9.87, 3.07, 0.0, -13.41, -11.99, -7.78, -6.44, 8.69, 9.24, 9.84, 8.56, 9.2, 8.0, 6.47, 6.9, 4.95, 3.3, 0.0, 0.0, -2.81, -2.13, -1.98, 0.0, 0.0, -10.8, -11.53, -12.01, -12.96, -12.52, -11.62, -11.62, -10.73, -12.07, -12.14, -8.53, -5.0, -0.0, -10.73, -11.18, -11.62, -12.39, -14.03, -13.88, -14.75, -12.39, 11.38, 8.97, 7.6, 5.64, 3.25, 0.0, 4.38, 11.53, 11.9, 10.12, 0.0, 0.0, -3.58, -3.47, -3.47, -4.66, -10.43, 14.75, 0.0, 0.0, 0.0, 13.59, 10.43, 10.12, 14.3, 6.6, 10.43, 16.54, 16.99, 11.7, 8.2, 9.0, 15.74, 16.96, 18.19, 17.35, 15.58, 12.93, 13.27, 12.13, 12.11, 11.5, 9.84, 9.17, 7.85, 6.98, 5.0, 4.32, 7.54, 9.17, 12.73, 13.58, 11.66, 5.81, 0.0, -7.44, -12.3, -11.99, -7.78, -6.44, 9.61, 10.17, 10.17, 9.6, 9.6, 8.56, 7.8, 6.31, 4.62, 3.39, 1.89, 0.0, 0.0, 0.0, -2.06, -1.71, -2.37, -10.8, -12.07, -12.07, -11.62, -12.07, -13.01, -11.99, -11.2, -11.71, -12.07, -12.07, -12.96, 12.07, 9.83, 4.6, -3.25, -10.58, -12.07, -13.86, -13.41, -13.86, 6.8, 7.36, 2.06, 0.0, 0.0, 10.12, 13.57, 14.31, 14.75, 14.3, 13.57, 10.12, 6.2, 4.38, 3.36, 0.0, 0.0, 0.0, 0.0, 14.75, 0.0, 6.6, 7.69, 9.48, 14.75, -0.0, 16.09, 12.01, 14.51, 9.17, 3.33, 0.0, 2.72, 7.06, 10.65, 15.02, 16.69, 15.81, 12.72, 11.85, 11.26, 11.33, 9.82, 7.65, 5.98, 5.2, 3.34, 2.82, 4.38, 8.33, 11.84, 11.64, 7.71, 1.94, -3.07, -9.17, -10.79, -9.48, -6.67, -5.6, 9.09, 9.61, 10.17, 9.92, 9.01, 8.56, 7.21, 6.47, 6.14, 4.5, 2.98, 1.72, 0.0, 3.14, 0.0, 0.0, -3.82, -11.2, -12.52, -11.71, -10.04, -12.72, -12.39, -12.96, 12.52, 11.62, -8.22, -3.82, -3.04, -3.39, 11.18, 4.4, -0.0, -9.11, -11.02, -12.96, -12.52, -12.72, 0.0, 4.6, 0.0, -2.54, -3.47, -2.98, 0.0, 2.98, 11.38, 14.75, 13.44, 12.39, 6.4, 7.69, 7.93, 4.66, 0.0, 0.0, 14.3, 14.3, 10.12, 9.8, 9.48, 9.48, 15.2, 16.09, 11.7, 7.4, 12.01, 11.38, 5.81, 2.22, 1.86, 2.99, 3.33, 6.52, 8.9, 11.43, 12.29, 12.25, 12.56, 11.77, 9.89, 8.72, 7.26, 4.27, 3.3, 3.93, 4.45, 6.65, 9.75, 9.2, 6.14, 0.0, -11.06, -10.47, -8.05, -6.67, -5.6, -6.43, 9.67, 9.67, 10.18, 10.18, 9.92, 9.01, 8.35, 7.03, 5.65, 4.12, 4.37, 1.53, 0.0, 6.0, 9.8, 7.24, 2.45, 0.0, 9.17, 5.6, 2.45, 2.45, -0.0, 13.86, 0.0, 0.0, 0.0, -4.65, -6.97, -9.3, -10.0, -11.62, -11.18, -9.6, -10.38, -11.06, -11.06, -9.58, 0.0, 2.82, 2.19, 0.0, -4.1, -3.81, -4.05, -2.65, -2.57, 3.9, 12.27, 10.12, 8.85, 4.24, 9.8, 12.39, 13.86, 13.86, 13.86, 13.86, 13.41, 12.58, 11.87, 9.48, 0.0, 0.0, 0.0, 12.01, 15.19, 14.53, 12.65, 8.05, 7.04, 6.44, 5.09, 4.03, 5.11, 6.18, 8.2, 10.09, 11.38, 12.42, 13.27, 10.81, 8.72, 7.0, 4.4, 3.58, 3.88, 4.36, 6.34, 7.78, 1.6, -9.88, -10.73, -8.66, -2.2, -2.06, -3.32, -4.55, 9.2, 9.67, 9.67, 10.18, 9.37, 9.01, 7.8, 6.53, 6.84, 5.5, 4.0, 2.48, 0.0, 2.2, 6.9, 9.17, 9.48, 11.99, 12.58, 5.6, 2.45, -0.0, 2.54, 9.8, 0.0, 0.0, -2.39, -7.59, -9.66, -8.93, -3.68, -3.82, -3.96, -3.82, -7.9, -10.08, -10.41, -8.58, -4.32, 0.0, 2.06, 0.0, -2.45, -2.63, -4.52, -5.63, -6.34, -5.37, 0.0, 6.8, 6.6, 5.8, 11.99, 13.86, 13.86, 13.86, 13.44, 12.96, 12.52, 12.52, 12.52, 10.75, 0.0, 0.0, 16.09, 16.99, 17.43, 16.09, 14.75, 14.47, 14.39, 14.18, 13.76, 12.02, 11.52, 10.12, 7.69, 7.96, 9.8, 11.95, 13.91, 11.9, 10.92, 10.01, 9.12, 6.05, 3.7, 2.58, 2.0, -5.64, -12.83, -11.12, -9.17, -6.0, -1.66, 0.0, -1.5, -2.62, 9.67, 9.92, 10.39, 9.67, 10.18, 9.37, 8.27, 7.6, 6.19, 6.19, 4.95, 4.47, 2.9, 0.86, 0.0, 2.2, 7.13, 8.31, 13.86, -0.0, -0.0, -0.0, -0.0, -0.0, -6.0, -7.24, -6.95, -10.4, -11.99, -3.82, 0.0, 0.0, 0.0, -3.82, -5.2, -9.67, -9.6, -6.32, -2.28, 0.0, 0.0, -2.06, -5.4, -3.68, -1.91, -5.11, -7.11, -6.4, -5.49, 0.0, 0.0, 10.43, 14.3, 13.86, 13.86, 14.3, 13.44, 12.96, 12.52, 12.52, 14.75, 15.69, 0.0, 0.0, -16.09, 17.43, 17.88, 15.87, 13.32, 14.11, 14.75, 15.65, 15.93, 15.93, 15.53, 13.53, 11.99, 8.85, 7.9, 9.53, 12.52, 13.6, 14.36, 13.33, 11.8, 10.73, 9.8, 9.42, 5.31, -9.17, -10.37, -11.87, -6.94, -3.81, -2.13, -1.13, -1.29, -2.45, 9.67, 9.67, 9.92, 10.39, 9.67, 9.37, 8.27, 7.84, 6.93, 6.74, 5.62, 5.99, 5.99, 3.22, 0.0, 0.0, 0.0, 1.77, 0.0, 14.75, -15.65, -15.65, -14.75, -12.52, -12.3, -8.58, -9.2, -9.83, -10.28, 0.0, -5.4, -6.95, 9.83, 0.0, -1.93, -2.82, -5.2, -5.2, -3.68, -3.44, -5.8, -8.85, -11.62, 12.07, -3.68, -4.32, -7.54, -8.01, -7.19, -6.9, -8.18, -11.38, 16.09, 16.09, 16.09, 16.54, 15.69, 13.86, 11.18, 13.15, 16.19, 15.99, 7.4, 0.0, -16.09, 17.88, 19.22, 17.35, 14.11, 11.6, 13.32, 14.64, 16.09, 15.97, 14.42, 12.6, 10.73, 10.6, 10.63, 9.62, 9.66, 11.73, 12.87, 15.39, 15.16, 14.18, 14.9, 15.07, 14.3, 13.09, 12.42, 12.52, 0.0, -2.45, -1.84, -1.97, -2.13, -2.32, 9.88, 9.88, 9.92, 9.92, 9.67, 9.67, 8.65, 7.4, 7.4, 6.93, 6.34, 6.16, 7.0, 6.47, 2.98, 0.0, 0.0, 0.0, 0.0, -13.86, -14.3, -14.75, -14.3, -15.65, -13.41, -12.52, -12.07, -7.07, -9.6, -10.41, -10.84, -10.73, -10.73, -10.28, -9.2, -5.95, -7.59, -9.3, -9.08, -9.42, -11.62, -12.07, -10.4, -11.62, -9.6, -7.27, -9.66, -10.01, -10.37, -11.09, -10.12, -13.23, -13.28, -14.22, -19.22, -19.22, -20.12, 18.78, 12.07, 12.87, 15.33, 12.96, 7.8, -11.38, -7.2, -13.59, -22.35, -0.0, 16.74, 15.77, 13.81, 13.15, 14.4, 15.2, 12.88, 10.79, 10.2, 12.45, 13.33, 12.11, 10.6, 10.6, 11.29, 15.45, 17.68, 18.65, 16.97, 14.84, 14.5, 13.74, 12.39, 11.4, 9.97, 4.32, 0.0, -1.29, -2.54, -2.54, 9.88, 9.88, 9.24, 9.92, 9.2, 9.67, 8.65, 8.43, 7.4, 7.2, 7.2, 7.0, 7.0, 7.2, 6.72, 1.83, 0.0, 0.0, -6.2, -13.86, -14.3, -14.75, -15.2, -14.55, -13.57, -13.15, -11.99, -11.92, -11.78, -9.79, -11.02, -11.18, -10.58, -10.28, -10.28, -10.28, -10.14, -11.02, -11.06, -11.06, -11.62, -11.62, -10.6, -9.83, -9.75, -7.59, -8.22, -8.53, -8.1, -8.38, -7.28, -9.48, -9.16, -9.49, -10.19, -12.96, -16.09, -16.12, 11.38, 9.42, 11.38, 9.92, 0.0, -5.09, -8.2, -10.35, -17.45, -20.03, 0.0, 25.03, 22.35, 20.8, 14.19, 11.62, 9.8, 11.03, 13.19, 13.9, 13.23, 13.38, 12.7, 12.56, 10.77, 9.92, 14.13, 17.01, 18.19, 16.34, 14.88, 13.39, 13.15, 10.85, 10.21, 9.97, 8.85, 6.9, 2.13, 0.0, 9.47, 9.88, 10.13, 9.48, 9.92, 9.2, 8.97, 7.99, 7.99, 7.78, 7.2, 7.0, 7.0, 6.74, 7.4, 6.12, 0.0, 0.0, -7.2, -15.65, -15.2, -15.2, -15.2, -15.05, -15.53, -14.84, -14.9, -14.47, -13.8, -12.96, -10.73, -10.73, -11.18, -9.83, -9.83, -9.7, -9.7, -10.28, -10.28, -10.73, -10.73, -10.28, -10.73, -10.28, -6.95, -4.6, -4.2, -6.71, -5.98, -6.94, -6.94, -7.54, -6.21, -6.21, -6.44, -7.28, -11.88, -12.31, 0.0, 8.87, 7.13, 0.0, -4.01, -4.12, -2.72, -7.4, -10.89, -10.77, -5.89, 0.0, 14.22, 20.75, 17.78, 9.92, 10.85, 13.19, 14.56, 14.51, 13.26, 12.7, 13.41, 13.06, 12.11, 11.25, 9.09, 11.25, 13.88, 15.25, 14.95, 14.99, 13.11, 10.68, 10.4, 10.94, 11.37, 11.16, 11.12, 11.12, 9.47, 9.47, 10.13, 9.48, 9.48, 10.17, 9.2, 8.97, 8.74, 7.78, 7.98, 7.0, 7.2, 6.34, 7.4, 7.08, 4.23, 0.0, -5.51, -15.19, -15.69, -16.09, -15.65, -15.65, -15.55, -15.55, -15.12, -14.68, -14.23, -13.79, -12.52, -10.28, -11.18, -9.75, -9.2, -9.2, -10.73, -9.83, -11.18, -9.83, -10.28, -10.73, -9.83, -9.83, -9.83, 9.83, 9.83, 0.0, -4.8, -7.9, -9.3, -8.94, -8.93, -8.4, -6.95, -10.73, -10.79, -8.66, -3.01, 2.87, 0.0, -5.8, -3.36, -2.81, -2.09, -5.34, -8.03, -8.25, -7.98, -6.36, 0.0, 11.04, 16.23, 10.01, 10.24, 12.63, 13.95, 14.46, 12.78, 12.9, 14.19, 15.19, 14.53, 12.6, 11.8, 9.39, 9.89, 11.86, 12.76, 14.09, 15.19, 12.15, 10.8, 10.81, 11.16, 11.26, 11.92, 11.92, 10.05, 9.47, 9.71, 10.13, 9.48, 9.71, 9.48, 9.2, 8.74, 8.51, 7.57, 7.57, 7.2, 6.52, 7.12, 7.03, 7.08, 2.47, 0.0, -12.33, -16.54, -16.76, -16.54, -16.09, -15.65, -15.57, -15.12, -15.2, -15.2, -14.75, -14.3, -12.96, -10.28, -10.73, -10.28, -8.94, -10.28, -10.08, -10.41, -10.08, -9.39, -9.39, -10.28, -9.83, -9.83, -9.39, -0.0, 10.28, 10.28, -10.28, -11.18, -11.62, -11.62, 10.73, -0.0, -0.0, -7.27, -6.45, -5.48, -3.07, -2.93, -5.2, 0.0, 0.0, 0.0, 0.0, -5.8, -10.75, -13.1, -15.36, -5.89, 5.94, 10.69, 12.22, 9.39, 11.17, 12.86, 14.13, 15.72, 17.02, 18.33, 18.33, 16.99, 14.69, 11.91, 10.78, 10.02, 9.76, 10.23, 10.82, 13.33, 10.9, 10.66, 10.85, 10.48, 9.53, 10.41, 10.41, 9.67, 10.05, 9.71, 9.71, 9.07, 9.71, 9.71, 9.48, 9.24, 8.74, 7.57, 7.57, 6.99, 7.4, 6.69, 7.12, 7.03, 5.51, 0.0, -4.23, -14.51, -16.66, -16.99, -16.54, -16.09, -15.99, -16.09, -16.09, -16.09, -16.09, -15.65, -14.75, -12.86, -12.07, -8.94, -9.21, -9.7, -10.52, -9.97, -9.83, -9.83, -8.94, -10.28, -8.94, -9.83, -9.83, -10.28, -10.28, 10.28, -0.0, -0.0, -10.73, 11.18, 10.73, 10.73, 10.28, 10.28, -0.0, 12.07, 12.96, 0.0, 11.18, -0.0, -0.0, 10.73, 9.2, 0.0, -9.3, -11.53, -10.89, 0.0, 6.44, 8.37, 10.96, 8.68, 7.4, 7.81, 12.29, 17.59, 18.21, 17.88, 17.43, 16.66, 14.81, 13.75, 11.11, 11.71, 11.6, 11.16, 11.09, 11.9, 10.91, 9.62, 9.96, 10.38, 8.97, 9.36, 9.36, 9.67, 10.05, 9.71, 9.71, 9.71, 9.29, 9.71, 9.48, 9.24, 8.74, 8.51, 7.57, 7.78, 7.4, 7.6, 7.84, 7.8, 7.8, 4.12, 0.0, -9.17, -15.19, -16.37, -16.09, -16.09, -15.99, -16.54, -16.09, -16.09, -16.09, -15.57, -15.12, -13.96, -11.35, -10.18, -9.75, -9.74, -10.28, -9.83, -9.83, -9.33, -9.33, -9.83, -10.28, -10.28, -10.28, -10.73, 10.28, 10.28, 10.28, -0.0, -0.0, 10.28, 10.28, 10.28, 10.28, 10.28, 7.59, 5.0, 7.9, 12.07, 11.62, 10.73, -0.0, -0.0, -0.0, 6.64, 0.0, -8.53, -7.76, 2.22, 6.22, 7.3, 8.99, 5.51, 1.3, 1.62, 4.55, 10.12, 13.28, 12.33, 14.88, 14.46, 11.37, 10.9, 10.87, 10.66, 12.04, 11.31, 10.58, 10.54, 10.28, 8.57, 8.53, 10.12, 9.64, 8.85, 8.85, 9.67, 9.67, 9.47, 9.47, 9.71, 9.71, 9.29, 9.48, 9.48, 9.24, 8.51, 8.51, 7.78, 7.18, 6.99, 7.63, 7.84, 7.4, 6.54, 4.42, 0.0, -5.51, -15.69, -16.76, -15.65, -16.09, -12.96, -15.2, -15.65, -13.86, -14.23, -14.23, -13.15, -11.56, -10.5, -10.08, -10.14, -10.69, -11.02, -10.41, -9.13, -9.97, -11.18, -11.18, -11.62, -10.73, -10.73, 10.28, 10.28, 10.28, -0.0, -0.0, -0.0, -0.0, -0.0, -0.0, 7.27, 7.9, 10.8, 11.62, 11.62, 11.62, 11.18, -0.0, -4.4, -0.0, -0.0, 10.28, 10.18, 6.4, 12.64, 15.71, 18.15, 19.67, 0.0, 0.0, 0.0, 0.0, 2.11, 6.26, 9.19, 10.31, 10.15, 10.65, 10.98, 10.98, 11.7, 11.03, 10.51, 8.73, 9.16, 9.48, 9.48, 7.73, 8.87, 9.62, 9.27, 9.27, 9.67, 9.67, 9.67, 9.47, 9.71, 9.71, 9.71, 9.71, 10.13, 9.24, 8.33, 8.51, 7.78, 7.99, 7.18, 7.4, 7.4, 6.56, 5.37, 6.14, 6.47, 2.79, -10.19, -16.19, -15.27, -14.53, -14.47, -13.41, -13.86, -12.96, -12.52, -12.45, -11.84, -11.84, -11.13, -10.35, -10.56, -10.73, -10.68, -10.04, -10.65, -10.73, -11.18, -11.18, -11.18, -11.62, -10.28, 10.28, 10.28, 9.83, -0.0, -0.0, -0.0, -0.0, -0.0, 4.4, 10.0, 10.18, 10.73, 11.62, 10.0, 10.73, 10.73, -0.0, -0.0, -0.0, 4.6, 9.3, 11.45, 12.33, 16.15, 19.59, 24.14, 26.28, 18.79, 6.69, 4.42, 1.57, 1.58, 5.12, 6.54, 8.03, 8.86, 8.99, 9.54, 9.61, 9.76, 9.56, 9.8, 7.93, 7.89, 8.56, 9.95, 7.69, 7.34, 8.83, 8.85, 8.85, 9.67, 9.67, 9.67, 9.67, 9.47, 9.47, 9.71, 9.71, 9.71, 9.48, 9.0, 8.11, 8.11, 7.6, 7.6, 7.99, 6.99, 5.81, 4.05, 4.12, 4.79, 3.07, -2.65, -12.36, -14.07, -14.71, -14.4, -13.77, -12.96, -12.07, -11.62, -11.55, -11.55, -11.55, -11.35, -10.91, -11.11, -10.66, -10.73, -11.18, -11.18, -11.18, -11.18, -12.07, -11.62, -12.07, -9.83, -10.28, -10.28, -7.27, -6.95, -7.27, -0.0, -0.0, -0.0, 4.6, 6.2, 7.9, 11.62, 7.9, 7.9, 0.0, 10.73, -0.0, -0.0, -0.0, -0.0, 5.4, 9.17, 10.65, 12.73, 16.69, 22.98, 24.07, 14.55, 9.14, 6.48, 0.81, -1.59, 0.78, 5.25, 6.85, 7.59, 7.63, 8.78, 8.91, 10.3, 12.72, 13.31, 9.82, 8.85, 8.66, 9.22, 7.93, 7.13, 7.98, 8.4, 8.4, 9.07, 9.67, 9.67, 9.67, 9.67, 9.47, 9.47, 9.71, 9.71, 9.88, 9.0, 8.77, 8.11, 8.33, 7.95, 7.6, 7.6, 6.81, 5.98, 4.54, 3.62, 1.26, -1.83, -10.75, -14.39, -15.49, -15.61, -15.08, -13.75, -12.96, -12.07, -11.62, -11.62, -11.53, -11.51, -11.06, -11.51, -11.46, -11.18, -11.18, -11.18, -11.18, -11.18, -12.07, -11.18, -10.73, -10.73, -9.83, -10.28, -10.28, -7.27, -7.59, -0.0, -0.0, -0.0, -0.0, 2.82, 3.04, -0.0, 0.0, 0.0, 0.0, 11.18, -0.0, -0.0, -0.0, -0.0, -0.0, 2.54, 2.89, 2.57, 11.16, 18.2, 23.67, 3.07, 5.02, 9.42, 8.84, 0.85, -2.14, 0.0, 4.43, 6.19, 7.38, 9.31, 11.16, 12.72, 13.75, 13.39, 11.27, 10.48, 9.85, 9.73, 8.94, 7.93, 7.93, 8.85, 8.85, 9.07, 9.07, 9.42, 9.67, 9.67, 9.67, 9.47, 9.47, 9.47, 9.47, 9.62, 8.77, 8.77, 8.39, 7.95, 7.95, 8.33, 7.4, 6.99, 7.12, 4.01, 1.46, -1.47, -7.93, -12.27, -14.38, -14.79, -15.47, -15.05, -14.3, -13.41, -12.96, -12.07, -11.62, -11.4, -11.4, -11.4, -11.28, -11.28, -11.28, -11.03, -11.03, -11.03, -10.4, -10.4, -10.6, -10.73, -9.39, -9.39, -10.28, -0.0, -0.0, -0.0, -0.0, -0.0, -0.0, -0.0, -2.54, -4.1, -9.39, -4.2, -7.27, 11.62, -0.0, -0.0, -0.0, -0.0, -0.0, -0.0, -4.65, -4.38, 8.0, -0.0, -13.86, 0.0, 2.06, 5.8, 10.22, 10.61, 0.97, -2.08, 0.0, 1.94, 4.6, 6.1, 8.31, 9.13, 10.12, 10.75, 13.41, 12.42, 10.81, 9.57, 10.12, 10.12, 11.44, 11.9, 11.9, 9.07, 9.07, 9.07, 9.95, 9.67, 9.67, 9.67, 10.05, 10.05, 10.05, 9.62, 9.37, 8.77, 8.39, 8.61, 7.95, 7.95, 8.11, 7.78, 7.6, 7.03, 3.24, 0.0, -3.69, -8.94, -11.52, -13.03, -14.53, -15.34, -14.9, -14.3, -13.86, -12.96, -12.52, -11.03, -10.6, -10.0, -10.0, -10.4, -10.4, -10.4, -10.4, -8.22, -8.22, -8.22, -7.9, 12.52, 11.18, 10.73, 11.18, -0.0, -0.0, -0.0, -0.0, -0.0, -0.0, -2.49, -6.7, -5.8, 11.62, 8.94, 9.39, 11.18, -0.0, -0.0, -0.0, 2.93, 3.96, -0.0, -3.53, 11.18, 17.11, 25.93, 19.91, 11.7, 4.24, 5.28, 7.78, 11.8, 11.44, 2.28, -1.42, -0.7, 2.08, 3.87, 4.66, 7.0, 8.51, 10.23, 10.98, 12.39, 9.48, 9.8, 13.86, 14.3, 12.27, 12.39, 12.39, 9.59, 9.59, 9.59, 9.95, 9.95, 9.95, 9.67, 10.05, 10.05, 10.05, 9.8, 9.37, 9.37, 8.99, 8.39, 8.61, 8.39, 8.11, 8.51, 8.21, 7.12, 5.81, 1.65, 0.0, -4.81, -5.48, -8.85, -10.43, -12.65, -13.99, -14.75, -14.3, -13.41, -12.96, -8.85, -8.22, -0.0, -0.0, -0.0, -0.0, -0.0, -0.0, -0.0, -0.0, -0.0, -0.0, -0.0, -0.0, -0.0, -0.0, -0.0, -0.0, -0.0, -0.0, -0.0, -0.0, -4.6, -5.46, -8.22, -0.0, 10.0, 9.11, 8.8, 7.59, -0.0, -0.0, 2.37, 4.48, 5.4, 11.62, 11.16, 14.53, 21.9, 26.74, 25.58, 19.09, 17.7, 13.99, 10.12, 11.37, 11.75, 4.74, 0.0, 0.0, 2.38, 3.89, 6.42, 7.88, 8.06, 8.2, 9.87, 11.1, 13.28, 14.75, 13.23, 13.32, 13.15, 13.15, 9.34, 9.34, 9.34, 9.95, 9.95, 9.95, 9.95, 9.8, 10.05, 10.05, 9.8, 10.19, 9.92, 9.37, 8.99, 8.99, 8.39, 8.77, 8.77, 8.51, 8.9, 7.6, 6.31, 3.59, 0.0, 0.0, 0.0, 0.0, 0.0, -10.12, -10.12, -13.86, 13.41, 13.41, -0.0, -0.0, -0.0, -0.0, -0.0, -0.0, -0.0, -0.0, -0.0, -0.0, 4.8, 4.8, 5.2, 4.6, 4.4, 4.4, 3.53, 3.53, -0.0, -0.0, -0.0, -0.0, -4.6, -8.8, -9.2, -8.22, 8.53, 10.04, 7.51, 6.95, 3.53, -0.0, -0.0, 2.45, 10.37, 12.52, 11.71, 13.88, 16.99, 24.04, 25.87, 21.95, 19.89, 17.88, 11.92, 8.22, 10.73, 12.11, 8.72, 1.53, 0.0, 2.36, 4.54, 4.24, 0.0, 0.0, 0.0, 12.92, 14.61, 15.18, 13.44, 13.75, 13.72, 13.72, 9.34, 9.34, 9.34, 9.95, 9.95, 10.43, 9.95, 10.32, 10.32, 10.32, 10.32, 10.32, 9.92, 9.92, 9.92, 9.37, 9.37, 9.37, 8.77, 9.17, 8.94, 9.17, 7.92, 6.72, 5.65, 4.95, 2.98, 3.58, 4.52, 6.2, 9.48, 13.41, 12.96, 12.96, 11.87, 11.87, 11.87, 10.04, 10.04, 9.67, 9.3, 9.67, 9.67, 7.59, 7.27, 7.9, 7.9, 7.27, 6.95, 6.95, 7.59, 6.2, 5.7, 3.25, -0.0, -0.0, -7.59, -9.75, -9.11, -10.28, -0.0, 6.2, 7.9, 7.59, 6.94, 2.82, 2.93, 7.78, 11.12, 12.3, 12.96, 13.23, 14.64, 16.99, 19.52, 25.87, 24.59, 19.59, 12.46, 6.95, 7.44, 9.84, 12.13, 9.96, 4.38, 1.95, 0.0, -15.65, -0.0, 14.75, 0.0, 5.65, 13.76, 13.55, 13.29, 13.15, 14.16, 14.16, 9.34, 9.34, 9.34, 9.95, 9.95, 10.43, 10.43, 10.8, 10.32, 10.32, 10.32, 10.32, 10.32, 10.71, 10.19, 9.92, 9.37, 9.37, 9.78, 9.78, 9.61, 9.41, 9.73, 9.23, 9.66, 9.09, 9.49, 12.65, 12.65, 13.28, 13.59, 13.86, 13.41, 12.96, 12.27, 12.27, 12.27, 11.62, 11.21, 11.21, 10.79, 10.79, 9.58, 8.82, 8.43, 9.96, 9.55, 8.55, 8.18, 8.55, 7.9, 7.59, 7.59, 3.25, 3.39, -0.0, -7.9, -10.73, -10.28, -10.28, -10.0, 7.9, 9.3, 8.53, 6.97, 3.04, 6.0, 10.41, 11.71, 12.71, 14.11, 14.3, 12.89, 12.98, 14.23, 17.59, 18.7, 15.64, 11.53, 8.03, 5.75, 6.67, 9.97, 10.61, 11.2, 10.65, 13.99, 11.06, 14.84, 14.31, 10.43, 7.76, 9.41, 10.97, 13.06, 13.99, 14.61, 14.61, 9.34, 9.34, 9.34, 9.68, 10.43, 10.43, 10.43, 10.8, 10.8, 10.32, 10.32, 10.8, 10.8, 10.71, 10.71, 10.43, 10.33, 10.33, 10.33, 10.76, 10.22, 10.4, 10.3, 10.77, 10.39, 11.69, 12.65, 12.89, 13.81, 14.31, 14.16, 13.86, 13.86, 13.41, 12.83, 12.35, 12.35, 12.35, 11.45, 11.45, 11.03, 11.03, 10.0, 10.8, 10.8, 9.45, 8.91, 9.7, 10.08, 9.75, 10.6, 9.6, 7.27, 4.6, 3.39, 3.39, -0.0, -11.62, -10.73, -11.18, -10.0, 7.9, 10.04, 6.94, 3.82, 4.81, 8.31, 8.85, 11.62, 11.62, 13.86, 14.75, 13.72, 11.99, 10.69, 12.96, 14.55, 9.54, 8.4, 10.19, 5.6, 4.18, 7.18, 8.93, 10.99, 12.56, 13.28, 14.55, 14.99, 14.99, 13.19, 12.65, 14.84, 10.47, 12.01, 14.57, 15.69, 15.69, 9.34, 9.34, 9.34, 9.68, 10.43, 10.43, 10.43, 11.24, 10.8, 10.8, 10.8, 11.19, 11.19, 11.19, 11.19, 10.83, 10.83, 10.83, 11.25, 10.47, 10.92, 10.92, 11.53, 12.02, 12.11, 12.29, 13.03, 13.59, 13.7, 14.4, 14.22, 14.3, 13.86, 13.41, 12.96, 12.42, 12.42, 12.39, 11.61, 11.61, 11.61, 11.18, 11.18, 10.32, 10.75, 10.4, 10.84, 9.89, 10.14, 10.96, 11.18, 10.28, 7.27, 4.6, 4.8, 3.39, 4.4, -0.0, -11.62, -11.18, -7.59, 7.9, 10.8, -0.0, -0.0, 2.45, 6.0, 10.12, 10.0, 9.83, 10.73, 13.41, 16.01, 16.99, 15.06, 14.88, 13.91, 10.13, 5.8, 7.47, 6.64, 4.05, 4.81, 6.94, 8.22, 12.13, 12.39, 12.79, 13.99, 14.75, -0.0, 11.06, 11.06, 13.99, 13.39, 15.59, 17.1, 17.1, 9.34, 9.34, 9.81, 10.15, 10.15, 10.43, 10.43, 11.24, 10.94, 10.94, 11.19, 11.19, 11.19, 11.19, 11.59, 11.29, 10.98, 11.7, 11.7, 11.7, 11.38, 11.88, 11.94, 12.4, 12.16, 12.65, 13.19, 13.43, 13.8, 14.51, 14.51, 14.23, 14.3, 13.86, 13.41, 12.88, 12.44, 12.42, 12.42, 11.71, 11.71, 11.71, 11.28, 10.84, 10.32, 11.71, 11.84, 10.41, 10.18, 11.02, 10.58, 10.08, 9.2, 4.8, 4.8, 3.39, 3.25, 3.68, 4.8, -0.0, 11.18, 11.62, -0.0, -5.2, -3.82, -0.0, 2.28, 7.19, 8.53, 10.28, 8.4, 10.0, 13.99, 21.28, 20.85, 16.69, 12.92, 10.43, 10.59, 12.29, 9.8, 4.66, 3.79, 5.92, 8.31, 9.67, 10.54, 11.64, 11.9, -14.75, -13.19, -0.0, 10.75, 15.65, 15.65, 16.09, 16.99, 16.99, 9.55, 9.55, 10.15, 10.15, 10.15, 10.15, 10.15, 10.94, 10.94, 10.94, 11.31, 11.62, 11.62, 11.59, 11.59, 11.29, 11.38, 11.76, 12.5, 12.57, 12.62, 12.62, 12.73, 12.79, 12.94, 13.38, 13.39, 13.2, 15.04, 13.37, 14.07, 14.25, 14.3, 13.86, 13.86, 13.41, 12.9, 12.88, 12.44, 12.44, 12.0, 12.0, 11.53, 11.53, 11.09, 11.09, 11.09, 10.41, 10.32, 10.75, 10.18, 9.75, 9.96, 9.6, 8.55, 5.7, 6.2, 6.2, 5.95, 5.7, 8.53, -0.0, -0.0, -0.0, -0.0, -0.0, -0.0, 3.68, 8.85, 10.04, 6.17, 7.59, 11.53, 18.21, 28.61, 20.12, 12.13, 5.2, 10.82, 15.53, 16.85, 15.33, 12.01, 8.68, 10.3, 10.77, 11.58, 10.43, 10.12, 13.86, 13.86, 14.3, 14.75, 15.2, 15.2, 15.65, 16.09, 16.09, 9.55, 9.55, 9.88, 10.15, 10.15, 10.15, 10.15, 10.94, 10.94, 11.7, 11.7, 11.7, 11.62, 12.01, 11.59, 11.7, 11.7, 12.16, 12.57, 12.57, 12.62, 13.02, 12.65, 13.03, 13.2, 13.19, 13.39, 13.35, 13.15, 14.61, 13.19, 13.8, 13.8, 13.86, 13.86, 13.86, 13.41, 13.34, 12.9, 12.45, 12.44, 12.44, 12.0, 11.55, 11.09, 11.09, 11.09, 10.65, 10.62, 10.32, 9.75, 9.75, 10.38, 9.96, 9.2, 9.6, 8.58, 7.59, 6.17, 6.44, 4.8, -0.0, -0.0, -0.0, -0.0, -0.0, -0.0, 3.25, 8.22, 9.17, 7.54, 7.9, 11.03, 16.09, 28.16, 24.14, 18.33, 0.0, 9.8, 14.18, 16.04, 16.92, 17.88, 17.64, 16.58, 15.11, 14.39, 13.59, 13.57, 13.41, 12.96, 13.41, 13.86, 13.57, 14.03, 14.9, 14.99, 14.99, 9.55, 9.55, 9.88, 9.88, 10.15, 10.15, 10.15, 10.94, 10.94, 11.7, 11.7, 11.7, 12.07, 12.39, 12.09, 12.09, 12.16, 12.16, 12.57, 12.62, 12.62, 12.65, 13.03, 13.03, 13.02, 13.19, 13.15, 12.99, 13.77, 13.67, 13.01, 13.23, 13.36, 13.8, 13.86, 13.86, 13.86, 13.86, 13.41, 12.96, 12.96, 12.52, 12.52, 12.07, 11.62, 11.18, 11.18, 10.65, 10.65, 10.62, 10.62, 10.6, 10.18, 9.55, 9.55, 9.55, 9.2, 7.87, 6.17, 6.44, 5.6, -0.0, -0.0, -0.0, -0.0, -0.0, -0.0, 3.39, 3.68, 6.94, 7.82, 8.85, 12.27, 15.14, 23.23, 25.93, 21.61, 18.54, 16.91, 17.43, 16.94, 16.82, 16.79, 16.93, 16.9, 16.05, 16.05, 15.16, 14.3, 13.41, 12.52, 12.52, 12.52, 13.01, 12.45, 14.55, 14.42, 14.42, 9.88, 9.88, 9.88, 10.3, 10.3, 10.59, 10.94, 10.94, 10.94, 11.7, 11.7, 12.07, 12.07, 12.39, 12.45, 12.84, 12.49, 12.87, 12.87, 13.26, 13.27, 12.89, 13.25, 13.59, 13.02, 13.37, 13.15, 13.15, 13.47, 13.67, 13.94, 13.7, 13.23, 13.36, 13.36, 13.86, 13.86, 13.86, 13.41, 13.41, 13.41, 12.96, 12.52, 12.07, 12.07, 11.62, 11.18, 11.18, 11.18, 10.62, 10.62, 11.02, 10.58, 9.75, 9.96, 9.55, 9.13, 7.87, 7.87, 7.27, 5.9, 3.68, -0.0, -0.0, -0.0, -0.0, -0.0, -0.0, 3.53, 7.24, 8.85, 11.09, 13.57, 15.65, 19.62, 21.46, 20.07, 18.33, 19.51, 19.1, 17.31, 16.12, 14.6, 14.42, 15.43, 14.64, 14.73, 14.75, 13.41, 12.52, 12.52, 12.52, 12.52, 12.52, 12.71, 12.04, 13.99, 13.99, 9.61, 9.61, 10.3, 10.3, 10.3, 10.65, 10.94, 10.94, 10.94, 11.7, 11.7, 12.07, 12.07, 12.45, 12.77, 13.14, 13.15, 13.15, 13.51, 13.65, 13.27, 13.25, 13.25, 13.19, 13.52, 13.37, 13.28, 13.57, 13.47, 13.75, 13.99, 14.16, 13.7, 13.25, 13.37, 13.36, 13.36, 13.36, 13.36, 13.36, 13.41, 12.96, 12.96, 12.52, 12.07, 12.07, 11.62, 11.62, 11.18, 11.06, 10.62, 10.62, 10.58, 10.18, 9.75, 9.13, 9.13, 8.43, 7.87, 8.23, 7.27, 4.0, -0.0, -0.0, -0.0, 5.0, -0.0, -0.0, -0.0, 6.2, 10.79, 11.12, 14.84, 16.48, 19.03, 17.43, 17.23, 19.01, 21.0, 21.88, 20.09, 15.9, 12.79, 11.12, 12.72, 12.88, 12.9, 12.44, 12.52, 12.96, 12.96, 12.96, 12.96, 12.96, 12.52, 12.71, 12.87, 12.87, 9.61, 9.61, 10.3, 10.3, 10.65, 10.65, 10.94, 10.94, 11.31, 11.7, 11.7, 12.07, 12.07, 12.45, 12.77, 13.14, 13.15, 13.15, 13.51, 13.87, 13.49, 13.43, 13.75, 13.35, 13.64, 13.81, 13.39, 13.57, 13.57, 13.82, 13.99, 13.99, 14.16, 13.7, 13.7, 13.25, 13.23, 13.23, 13.36, 13.36, 13.34, 12.9, 12.52, 12.96, 11.18, 12.07, 12.07, 11.62, 11.62, 11.18, 11.06, 10.62, 10.62, 10.18, 9.33, 9.33, 9.13, 8.05, 8.43, 7.87, 6.95, 5.63, -0.0, -0.0, -0.0, 7.9, -0.0, -0.0, 4.8, 7.59, 9.67, 10.37, 13.42, 16.79, 19.93, 17.84, 13.77, 16.79, 22.05, 22.02, 19.47, 17.43, 15.2, 11.6, 11.21, 12.79, 13.31, 12.86, 12.86, 12.96, 12.96, 13.41, 13.41, 13.41, 12.96, 12.83, 13.23, 13.15, 9.61, 9.61, 10.02, 10.65, 10.65, 10.65, 11.03, 11.38, 11.7, 11.7, 11.7, 11.74, 11.74, 12.11, 12.77, 12.78, 12.78, 13.15, 13.51, 13.87, 13.49, 13.83, 13.75, 13.35, 13.64, 13.23, 13.39, 13.65, 13.57, 13.57, 13.75, 13.75, 13.99, 13.99, 13.7, 13.7, 13.23, 13.23, 13.19, 13.36, 13.36, 12.9, 12.52, 12.96, 11.18, 12.07, 12.07, 12.07, 11.62, 11.18, 11.18, 10.62, 10.62, 10.18, 9.33, 9.33, 8.91, 8.72, 8.05, 8.43, 7.87, 6.64, 7.59, -0.0, -0.0, 4.8, 4.8, 4.6, 4.8, 7.9, 7.9, 9.17, 12.27, 15.59, 21.87, 21.35, 14.69, 14.28, 17.38, 18.54, 16.58, 15.17, 15.2, 14.6, 13.44, 13.01, 13.67, 13.72, 13.28, 13.41, 13.41, 13.41, 13.41, 13.41, 13.41, 12.88, 13.31, 13.23, 9.61, 9.61, 10.02, 10.35, 10.65, 11.03, 11.38, 11.38, 11.38, 11.38, 11.74, 12.07, 12.77, 12.77, 13.14, 13.14, 13.14, 13.15, 13.51, 13.14, 13.49, 13.43, 13.43, 13.35, 13.35, 13.23, 13.39, 13.39, 13.65, 13.57, 13.57, 13.75, 13.75, 13.94, 13.94, 14.14, 13.7, 13.23, 13.23, 13.36, 13.36, 12.91, 12.9, 12.07, 12.96, 11.62, 12.01, 12.0, 11.62, 11.18, 11.18, 10.73, 10.62, 10.18, 9.7, 9.7, 8.91, 8.3, 8.05, 8.05, 8.43, 7.51, 5.37, 6.95, 4.6, 4.6, 4.4, 4.6, 4.8, 7.9, 7.9, 9.67, 9.8, 12.52, 16.68, 21.63, 21.04, 15.91, 13.7, 11.09, 11.64, 12.72, 13.23, 13.41, 13.86, 13.88, 14.03, 14.55, 14.11, 13.67, 13.72, 13.72, 13.75, 13.77, 13.33, 13.33, 12.66, 13.31, 9.61, 9.61, 10.35, 10.35, 10.35, 10.72, 11.38, 11.38, 11.38, 11.74, 12.07, 12.77, 12.77, 12.77, 13.14, 13.14, 13.51, 13.15, 13.51, 13.14, 13.1, 13.43, 13.04, 13.35, 13.35, 13.23, 13.11, 13.39, 13.28, 13.57, 13.47, 13.32, 13.75, 13.94, 13.94, 13.94, 13.7, 13.7, 13.67, 13.81, 13.36, 12.91, 12.91, 12.47, 12.47, 13.41, 11.62, 11.18, 10.73, 10.73, 10.73, 10.28, 10.28, 10.28, 9.74, 9.26, 9.26, 8.48, 8.48, 8.91, 8.05, 8.05, 9.6, 6.95, 6.95, 7.27, 4.4, -0.0, -0.0, 3.53, 6.45, 9.67, 11.6, 11.53, 11.06, 15.61, 26.07, 24.39, 17.09, 13.86, 13.99, 13.19, 14.61, 15.99, 15.87, 14.11, 13.7, 13.99, 13.99, 13.57, 13.57, 13.75, 13.32, 13.53, 13.09, 12.66, 12.58, 12.58, 10.35, 10.35, 10.35, 10.35, 10.35, 11.06, 11.38, 11.38, 11.74, 11.74, 12.77, 12.77, 12.77, 13.14, 13.14, 13.51, 13.51, 13.15, 13.51, 13.49, 13.1, 13.43, 13.04, 13.35, 13.35, 13.64, 13.11, 13.39, 13.28, 13.57, 13.57, 13.75, 13.75, 13.75, 13.5, 13.94, 14.14, 14.14, 14.14, 13.67, 13.81, 13.36, 12.91, 12.91, 12.92, 12.96, 12.07, 10.73, 10.28, 10.28, 10.28, 9.83, 9.83, 9.83, 9.39, 9.29, 8.85, 8.6, 8.48, 8.48, 8.91, 8.0, 7.89, 6.95, 6.95, 6.95, 7.27, -0.0, -0.0, 3.53, 6.45, 7.9, 9.17, 10.41, 12.27, 14.94, 20.78, 30.11, 25.96, 18.7, 16.3, 16.51, 17.86, 18.27, 17.33, 14.18, 11.52, 11.17, 11.52, 12.79, 12.79, 11.9, 12.03, 11.99, 11.85, 12.14, 12.14, 12.14, 10.06, 10.06, 10.35, 10.35, 10.7, 11.06, 11.38, 11.38, 11.74, 11.74, 12.77, 12.77, 13.14, 13.14, 13.14, 13.51, 13.15, 13.51, 13.51, 13.1, 13.1, 13.04, 13.04, 13.35, 13.35, 13.64, 13.11, 13.39, 13.39, 13.57, 13.57, 13.75, 13.75, 13.75, 13.55, 13.99, 13.94, 14.14, 14.14, 14.14, 13.67, 13.36, 13.36, 12.92, 12.92, 12.92, 12.52, 11.62, 10.73, 10.28, 9.83, 9.83, 9.39, 9.39, 9.39, 8.87, 8.87, 8.41, 8.17, 8.6, 8.6, 8.6, 8.48, 9.6, 8.8, 6.95, 7.27, 4.8, -0.0, 3.53, 7.9, 7.59, 6.45, 9.17, 11.99, 14.99, 17.59, 22.89, 28.43, 23.6, 19.57, 20.09, 21.19, 20.47, 18.77, 16.99, 9.77, 8.18, 10.12, 10.12, 10.65, 10.65, 11.28, 11.37, 10.99, 10.99, 10.99, 10.99, 10.06, 10.06, 10.06, 10.7, 11.06, 11.06, 11.06, 11.41, 11.74, 11.74, 12.42, 12.42, 12.77, 12.78, 12.78, 13.15, 13.15, 13.14, 13.14, 13.1, 13.04, 13.04, 13.35, 13.35, 13.64, 13.23, 13.23, 13.39, 13.39, 13.65, 13.57, 13.57, 13.82, 13.75, 13.99, 13.99, 13.99, 13.99, 14.14, 14.14, 13.7, 13.67, 13.23, 12.79, 12.79, 12.47, 12.47, 12.07, 11.62, 11.18, 10.28, 9.83, 9.83, 9.39, 9.39, 8.43, 8.43, 7.98, 7.98, 8.43, 8.41, 8.6, 8.6, 8.38, 10.18, 8.8, 8.8, 6.64, 3.25, 4.8, 5.2, 3.25, 3.53, 8.85, 11.99, 14.11, 15.71, 17.86, 21.17, 22.37, 22.73, 23.64, 22.15, 21.19, 18.68, 16.96, 16.82, 7.2, 7.54, 7.69, 10.12, 8.85, 9.17, 9.84, 10.55, 9.62, 9.62, 9.62, 10.06, 10.06, 10.4, 10.4, 11.06, 11.09, 11.41, 11.41, 11.41, 12.07, 12.42, 12.42, 12.42, 12.78, 12.78, 12.78, 12.78, 13.14, 12.76, 13.1, 13.43, 13.04, 13.35, 13.35, 13.23, 13.23, 13.23, 13.49, 13.39, 13.65, 13.57, 13.57, 13.82, 13.82, 13.75, 13.99, 13.99, 13.99, 13.94, 13.94, 13.5, 13.23, 13.23, 12.79, 12.79, 12.31, 11.88, 12.02, 11.57, 11.57, 11.12, 10.73, 10.28, 9.83, 9.83, 8.94, 8.94, 8.43, 7.98, 7.98, 8.43, 8.41, 8.85, 9.29, 8.82, 9.75, 8.8, 8.0, 6.95, 4.6, 3.25, 2.6, 6.45, 10.41, 13.01, 13.59, 15.05, 15.83, 16.8, 16.6, 20.04, 26.08, 25.34, 20.39, 19.16, 17.72, 17.97, 13.39, 4.3, 5.48, 8.05, 8.53, 8.85, 8.01, 8.85, 9.42, 9.42, 9.42, 10.4, 10.4, 10.4, 10.4, 11.09, 11.09, 11.09, 11.41, 11.73, 12.08, 12.08, 12.08, 12.43, 12.43, 12.43, 12.78, 12.78, 12.76, 12.76, 13.1, 13.43, 13.04, 12.94, 12.94, 12.94, 13.23, 13.23, 13.49, 13.39, 13.39, 13.65, 13.57, 13.57, 13.82, 13.75, 13.75, 13.75, 13.75, 13.94, 13.5, 13.5, 13.07, 13.01, 12.58, 12.79, 12.31, 11.88, 11.88, 11.4, 11.57, 11.12, 10.68, 10.68, 10.28, 9.83, 9.83, 8.94, 8.49, 8.05, 8.05, 7.98, 8.43, 8.41, 8.85, 8.82, 9.83, 9.39, 8.4, 6.95, 4.4, 3.25, 3.53, 8.22, 12.14, 12.58, 13.41, 14.11, 14.84, 14.94, 14.03, 15.18, 22.35, 25.46, 22.71, 20.18, 18.54, 17.19, 13.99, 0.0, 12.96, 8.85, 8.85, 7.54, 7.54, 8.53, 8.53, 8.53, 8.53, 10.4, 10.4, 10.4, 10.43, 11.09, 11.09, 11.09, 11.4, 11.73, 12.08, 12.08, 12.08, 12.43, 12.43, 12.43, 12.42, 12.42, 12.76, 12.76, 13.1, 12.72, 13.04, 12.64, 12.94, 12.94, 13.23, 13.23, 13.23, 13.39, 13.39, 13.39, 13.57, 13.57, 13.57, 13.47, 13.47, 13.75, 13.75, 13.25, 13.5, 13.07, 13.07, 12.58, 12.58, 12.79, 12.31, 11.88, 11.88, 11.4, 11.4, 11.12, 11.12, 10.68, 10.66, 10.28, 9.83, 9.39, 8.94, 8.49, 8.05, 7.6, 8.05, 8.41, 8.85, 8.85, 10.28, 10.28, 8.8, 8.8, 4.4, 4.6, 4.8, 11.03, 11.71, 12.14, 13.15, 13.59, 13.15, 13.19, 13.27, 13.76, 17.13, 20.47, 21.99, 22.81, 19.78, 16.66, 0.0, -11.6, 12.52, 12.52, 10.8, 8.22, 6.2, 7.9, 10.73, 10.73, 10.73, 10.09, 10.09, 10.09, 10.76, 10.76, 10.76, 10.76, 11.73, 11.73, 11.73, 11.73, 12.07, 12.07, 12.07, 12.42, 12.42, 12.42, 12.76, 12.76, 12.72, 12.72, 12.64, 12.64, 12.94, 12.94, 12.94, 13.23, 13.23, 13.11, 13.39, 13.39, 13.7, 13.7, 13.99, 13.47, 13.47, 13.47, 13.32, 13.25, 12.82, 13.07, 12.63, 12.58, 12.58, 12.35, 12.31, 11.88, 11.88, 11.44, 11.4, 11.12, 11.12, 11.12, 10.66, 10.22, 10.22, 9.76, 9.39, 8.49, 8.05, 8.05, 7.6, 8.05, 8.49, 8.41, 8.94, 9.83, 9.33, 8.18, 5.46, 6.95, 9.2, 10.6, 11.71, 11.2, 12.04, 12.45, 12.72, 12.42, 12.51, 12.52, 13.06, 14.22, 18.92, 24.55, 21.41, 0.0, -8.82, -11.03, 12.52, 12.07, 11.62, 4.8, 4.8, 10.28, 9.83, 9.83, 9.83, 10.09, 10.09, 10.09, 10.76, 10.76, 10.76, 11.39, 11.39, 11.39, 11.73, 11.73, 12.07, 12.07, 12.07, 12.42, 12.78, 12.42, 12.76, 12.39, 12.72, 12.33, 12.64, 12.64, 12.64, 12.94, 12.94, 12.94, 13.23, 13.11, 13.11, 13.81, 13.7, 13.7, 13.7, 13.47, 13.47, 13.47, 13.05, 13.25, 12.82, 12.82, 12.58, 12.58, 12.14, 12.08, 12.31, 11.88, 11.88, 11.44, 11.4, 11.4, 11.12, 11.12, 10.66, 10.66, 10.22, 9.76, 9.32, 8.87, 8.49, 8.05, 7.6, 7.6, 8.05, 8.05, 8.94, 9.39, 9.75, 8.55, 8.55, 8.55, 8.8, 9.83, 10.6, 11.71, 12.14, 12.71, 12.04, 11.88, 11.33, 11.2, 11.2, 11.06, 15.99, 26.0, 19.63, 14.9, -5.95, -9.6, 11.18, 11.62, 8.22, 0.0, 0.0, 10.28, -9.83, -9.83, -9.83, 10.09, 9.78, 10.44, 10.44, 10.44, 10.44, 11.04, 11.39, 11.39, 11.39, 11.72, 11.72, 12.07, 12.43, 12.78, 12.42, 12.76, 12.39, 12.39, 12.33, 12.33, 12.33, 12.64, 12.64, 12.94, 12.94, 12.94, 13.23, 13.52, 13.52, 13.81, 13.81, 13.7, 13.7, 13.15, 13.47, 13.47, 12.93, 13.25, 12.82, 12.82, 12.3, 12.58, 12.14, 12.08, 11.64, 11.64, 11.88, 11.44, 11.4, 11.4, 11.4, 11.12, 10.66, 10.66, 10.22, 9.77, 9.32, 8.87, 8.87, 8.49, 8.05, 7.6, 7.6, 7.6, 7.15, 9.39, 9.39, 9.83, 9.75, 10.18, 10.18, 10.28, 8.8, 11.18, 11.62, 12.52, 11.6, 11.5, 10.82, 10.99, 10.99, 11.64, 15.96, 27.25, 21.9, 17.43, 10.8, -5.0, 7.9, 10.38, 9.3, 0.0, 0.0, -7.59, -9.83, -9.83, -9.83, 10.12, 10.12, 10.44, 10.44, 10.44, 10.77, 11.04, 11.04, 11.04, 11.72, 12.07, 12.07, 12.43, 12.42, 12.42, 12.42, 12.39, 12.39, 12.01, 12.33, 12.33, 12.33, 12.64, 12.64, 12.94, 12.94, 12.94, 13.64, 13.52, 13.52, 13.52, 13.52, 13.7, 13.7, 13.15, 13.15, 13.05, 12.93, 12.52, 12.82, 12.39, 12.3, 11.87, 12.14, 12.14, 11.64, 11.64, 11.64, 11.64, 11.4, 11.4, 11.4, 11.4, 11.11, 10.66, 10.22, 9.77, 9.33, 8.87, 8.87, 8.43, 8.05, 8.05, 7.6, 7.6, 7.6, 9.39, 9.39, 9.83, 9.39, 9.83, 10.28, 10.73, 10.28, 9.75, 11.18, 12.07, 12.14, 11.6, 10.37, 10.47, 10.65, 12.0, 27.12, 27.69, 23.22, 18.03, 13.19, 0.0, 4.48, 9.08, 7.78, -3.68, -6.45, -7.59, -9.75, -9.75, -9.75, 10.11, 10.11, 10.11, 10.11, 10.44, 10.77, 11.04, 11.04, 11.39, 12.07, 12.07, 12.07, 12.07, 12.42, 12.42, 12.05, 12.39, 12.39, 12.01, 12.33, 12.33, 12.33, 12.64, 12.64, 12.94, 13.35, 13.35, 13.35, 13.52, 13.52, 13.52, 13.52, 13.7, 13.28, 13.15, 13.15, 13.05, 12.93, 12.52, 12.52, 12.39, 12.3, 11.87, 11.87, 12.14, 11.71, 11.64, 11.64, 11.64, 11.64, 11.56, 11.84, 11.4, 10.96, 10.47, 10.22, 9.77, 9.33, 8.89, 8.87, 8.43, 7.98, 7.54, 7.52, 7.52, 7.6, 7.6, 7.45, 9.2, 7.27, 10.28, 10.28, 10.28, 10.28, 10.28, 10.73, 11.62, 10.8, 11.2, 10.01, 9.17, 8.66, 16.69, 25.41, 26.21, 21.57, 13.95, -4.24, 0.0, 3.68, 3.53, 0.0, -7.9, -7.9, -8.58, -9.2, -9.2, -9.2, 10.11, 10.11, 10.11, 10.11, 10.11, 10.77, 10.77, 11.39, 11.72, 11.72, 11.72, 12.07, 12.05, 12.05, 12.05, 12.05, 12.39, 12.39, 12.39, 12.33, 12.72, 12.72, 13.04, 13.04, 13.04, 13.35, 13.75, 13.75, 13.19, 13.52, 13.52, 13.37, 12.96, 13.28, 13.15, 12.74, 12.74, 12.93, 12.52, 12.52, 12.39, 12.39, 11.87, 11.87, 12.14, 11.71, 11.71, 11.64, 11.64, 11.64, 11.64, 11.56, 11.4, 10.96, 10.52, 10.04, 9.6, 9.33, 8.89, 8.89, 8.43, 7.98, 7.54, 7.54, 7.97, 7.97, 7.94, 7.89, 9.2, 9.6, 9.6, 9.6, 9.6, 9.75, 9.83, 9.83, 10.18, 9.67, 10.01, 8.85, 8.85, 9.48, 15.92, 22.19, 26.27, 19.84, -4.01, -9.66, -10.73, -4.15, -5.75, -8.22, -9.67, -8.94, -9.58, -8.43, -8.43, -8.43, 10.11, 10.11, 10.11, 10.11, 10.77, 10.77, 10.77, 11.04, 11.72, 11.72, 11.72, 11.72, 12.05, 12.05, 12.05, 12.05, 12.39, 12.39, 12.39, 12.72, 12.72, 12.72, 13.04, 13.43, 13.43, 13.75, 13.75, 13.19, 13.19, 13.52, 13.52, 12.96, 12.96, 13.28, 13.28, 12.74, 12.74, 12.63, 12.52, 12.1, 12.39, 12.39, 11.96, 11.87, 12.14, 11.71, 11.71, 11.71, 11.71, 11.64, 11.64, 11.64, 11.4, 10.96, 10.52, 10.08, 9.6, 9.16, 9.33, 8.89, 8.44, 7.98, 7.98, 7.98, 7.98, 7.97, 8.41, 8.06, 7.89, 10.18, 9.6, 9.6, 10.18, 9.75, 9.75, 9.2, 9.2, 11.18, 11.03, 10.04, 6.94, 11.44, 15.99, 20.27, 28.39, 24.52, 12.64, -12.27, -11.02, -10.0, -9.46, -9.08, -10.4, -9.3, -9.58, -8.82, -8.82, -8.82, 10.11, 10.11, 10.11, 10.43, 10.43, 10.43, 10.43, 11.36, 11.36, 11.36, 11.36, 11.69, 12.05, 12.05, 12.05, 12.05, 12.39, 12.76, 12.76, 13.1, 13.1, 13.1, 13.43, 13.43, 13.43, 13.75, 13.75, 13.19, 13.52, 13.52, 13.11, 13.11, 13.28, 13.28, 12.87, 12.74, 12.74, 12.63, 12.63, 12.1, 12.39, 12.39, 11.96, 11.96, 11.96, 12.14, 11.71, 11.71, 11.71, 11.71, 11.71, 11.44, 11.0, 11.0, 10.52, 10.08, 9.64, 9.64, 9.16, 8.89, 8.89, 8.44, 7.98, 7.98, 7.98, 8.43, 8.41, 8.06, 7.89, 9.75, 9.2, 9.6, 10.28, 9.83, 9.83, 9.83, 9.33, 9.75, 10.73, 10.4, 11.6, 13.15, 15.65, 19.22, 25.93, 27.72, 19.22, -16.12, -12.96, -10.6, -9.86, -9.46, -8.53, -6.97, -7.9, -7.9, -7.9, -7.9, 10.11, 10.11, 10.11, 10.43, 10.43, 10.43, 10.43, 11.01, 11.01, 11.36, 11.36, 12.05, 12.05, 12.05, 12.42, 12.42, 12.76, 12.76, 12.76, 13.1, 13.1, 13.1, 13.43, 13.43, 13.04, 13.75, 13.35, 13.35, 12.79, 13.11, 13.11, 13.11, 12.96, 12.87, 12.87, 12.87, 12.33, 12.63, 12.63, 12.1, 12.1, 12.39, 11.96, 11.96, 11.96, 11.87, 11.45, 11.71, 11.71, 11.71, 11.71, 11.21, 10.78, 11.0, 10.56, 10.08, 9.64, 9.64, 9.21, 8.73, 8.73, 8.44, 8.0, 8.43, 8.43, 8.24, 8.67, 8.6, 8.48, 9.75, 9.2, 9.2, 8.8, 9.39, 9.39, 9.39, 9.39, 9.39, 10.28, 8.22, 12.52, 13.41, 14.55, 17.33, 23.48, 27.68, 20.96, 17.39, -15.78, -12.87, -10.12, -10.79, -8.1, -4.81, -3.04, 0.0, 0.0, 0.0, 9.78, 9.78, 10.09, 10.43, 10.43, 10.43, 10.76, 11.01, 11.01, 11.36, 11.69, 12.05, 12.05, 12.42, 12.42, 12.76, 12.76, 12.76, 12.76, 13.1, 13.1, 12.72, 13.1, 13.43, 13.04, 13.35, 13.35, 12.94, 12.79, 13.11, 13.11, 13.11, 13.11, 12.87, 12.87, 12.45, 12.33, 12.33, 12.21, 12.21, 12.1, 12.1, 12.39, 11.96, 11.96, 11.96, 11.45, 11.45, 11.45, 11.45, 11.28, 10.84, 10.78, 10.35, 10.35, 10.12, 10.08, 9.64, 9.21, 8.77, 8.29, 8.29, 8.29, 8.29, 8.24, 8.24, 8.67, 8.67, 8.6, 8.0, 8.4, 7.9, 7.27, 8.91, 8.91, 9.39, 9.39, 9.83, 10.28, 10.4, 12.52, 13.41, 14.6, 16.15, 22.6, 27.56, 22.32, 19.61, 15.99, -4.01, -7.2, -6.6, -3.25, 4.24, 12.3, 12.96, 12.96, 12.96, 9.78, 9.78, 10.09, 10.09, 10.09, 10.43, 10.76, 10.76, 11.01, 11.36, 11.69, 12.05, 12.05, 12.42, 12.42, 12.76, 12.76, 12.76, 12.76, 13.1, 12.72, 12.72, 13.1, 13.43, 13.04, 13.04, 12.94, 12.94, 12.79, 12.79, 13.11, 13.11, 12.7, 12.56, 12.87, 12.45, 12.45, 11.92, 11.92, 12.21, 12.1, 12.1, 12.1, 12.1, 11.96, 11.96, 11.45, 11.45, 11.45, 11.45, 11.03, 10.84, 10.84, 10.35, 9.92, 9.92, 9.92, 9.64, 9.21, 8.77, 8.77, 8.29, 8.29, 8.29, 8.29, 8.24, 8.67, 8.67, 8.67, 8.22, 8.63, 9.3, 8.55, 7.59, 7.81, 8.18, 9.54, 9.83, 10.28, 10.73, 12.07, 12.96, 14.16, 15.34, 20.96, 27.72, 21.9, 20.56, 18.78, 18.21, 15.33, 13.23, 14.31, 12.96, 12.79, 12.3, 12.3, 12.3, 10.09, 10.09, 10.09, 10.09, 10.09, 10.41, 10.41, 10.76, 11.01, 11.36, 11.69, 12.05, 12.05, 12.05, 12.05, 12.39, 12.39, 12.39, 12.39, 12.72, 12.72, 12.72, 12.72, 12.72, 13.04, 12.64, 12.94, 12.79, 12.79, 12.79, 13.11, 12.7, 12.56, 12.56, 12.45, 12.45, 12.45, 11.92, 11.92, 12.21, 12.21, 12.1, 12.1, 11.68, 11.96, 11.96, 11.54, 11.54, 11.45, 11.03, 11.03, 10.84, 10.84, 10.41, 10.35, 9.92, 9.92, 9.49, 8.99, 8.99, 8.77, 8.33, 8.33, 8.29, 8.29, 8.29, 8.67, 8.67, 8.67, 8.67, 9.11, 8.79, 7.81, 9.67, 7.81, 8.18, 9.33, 9.83, 10.28, 10.73, 11.62, 12.96, 13.72, 14.66, 18.71, 25.03, 24.11, 20.88, 20.4, 20.07, 19.22, 17.43, 16.09, 14.16, 12.46, 12.46, 12.46, 12.46, 10.09, 10.09, 10.09, 10.09, 10.09, 10.41, 10.41, 10.76, 11.01, 11.36, 11.69, 12.05, 12.05, 12.05, 12.05, 12.39, 12.39, 12.39, 12.39, 12.72, 12.72, 12.72, 12.72, 12.72, 13.04, 12.64, 12.94, 12.79, 12.79, 12.79, 13.11, 12.7, 12.56, 12.56, 12.45, 12.45, 12.45, 11.92, 11.92, 12.21, 12.21, 12.1, 12.1, 11.68, 11.96, 11.96, 11.54, 11.54, 11.45, 11.03, 11.03, 10.84, 10.84, 10.41, 10.35, 9.92, 9.92, 9.49, 8.99, 8.99, 8.77, 8.33, 8.33, 8.29, 8.29, 8.29, 8.67, 8.67, 8.67, 8.67, 9.11, 8.79, 7.81, 9.67, 7.81, 8.18, 9.83, 9.83, 10.28, 10.73, 11.62, 12.52, 13.41, 14.22, 16.09, 20.12, 23.55, 20.72, 20.72, 20.69, 19.77, 18.8, 17.15, 15.27, 12.83, 12.83, 12.83, 12.83]}, {"header": {"dx": 0.06612293990616946, "dy": 0.0552356325346848, "nx": 98, "ny": 59, "la1": 35.046912555036876, "la2": 31.78801023549047, "lo1": -121.43107172385933, "lo2": -114.95102361305473, "refTime": "2026041712", "parameterCategory": 1, "parameterNumber": 3}, "data": [-17.02, -17.39, -17.78, -17.35, -17.26, -16.37, -15.93, -15.49, -15.2, -14.75, -6.4, -6.0, -8.31, -6.67, -5.4, -6.45, -5.77, -4.4, -1.91, -0.0, -0.0, 4.81, 6.45, 6.98, 7.9, 9.3, 9.66, 11.2, 11.45, 12.07, 12.52, 12.3, 10.41, 7.9, 4.6, 0.0, 0.0, 0.0, 9.39, 9.97, 8.8, 7.9, -0.0, -5.6, -13.99, -18.33, -22.35, -23.75, -15.99, -11.53, -12.42, -13.19, -14.42, -14.84, -13.42, -13.42, -14.53, -13.99, -13.99, -14.84, -14.84, -13.99, -13.59, -10.75, -15.2, -11.06, -5.09, 0.0, 0.0, 2.65, 2.28, 1.94, 0.0, 0.0, 0.0, 0.0, 0.0, 0.0, -1.47, -3.58, -3.93, -1.9, -4.1, -4.65, -6.21, -4.32, -2.93, 0.0, 0.0, -3.92, -7.19, -10.86, -14.18, -15.2, -14.55, -14.16, -13.01, -12.58, -16.69, -17.02, -16.75, -16.74, -16.32, -16.48, -15.61, -15.18, -15.05, -14.75, -7.69, -4.66, -7.44, -8.85, -9.17, -5.4, -5.95, -3.82, -1.98, -1.64, -2.2, -0.0, 2.54, 7.78, 7.59, 8.94, 9.3, 9.66, 10.04, 5.6, 10.12, 13.86, 12.52, 9.83, 5.69, 0.0, 0.0, 0.0, 9.39, 10.28, 11.87, -0.0, -9.17, -15.2, -19.22, -22.93, -25.13, -19.08, -12.39, -12.81, -12.81, -13.97, -13.59, -13.59, -11.87, -12.52, -12.52, -12.65, -13.99, -15.65, -15.65, -15.2, 0.0, 0.0, 0.0, 0.0, 0.0, 0.0, 0.0, 2.65, 4.54, 4.42, 2.28, 0.0, -2.15, -1.83, -1.83, 0.0, -1.47, -3.58, -3.93, -1.9, -4.1, -4.65, -6.21, -4.32, -2.93, 0.0, 0.0, -3.92, -7.19, -10.86, -14.18, -15.2, -14.55, -14.16, -13.01, -12.58, -16.92, -16.39, -16.39, -16.34, -16.34, -16.54, -15.69, -15.07, -14.75, -14.75, -11.9, -7.78, -11.53, -12.3, -11.62, -10.4, -5.2, -3.19, -3.32, -2.13, -1.64, -2.06, -0.0, -0.0, 6.2, 7.59, 8.58, 8.58, 7.9, 3.68, -0.0, -0.0, -0.0, -0.0, 6.01, 0.0, 0.0, 0.0, 0.0, 11.62, 0.0, -13.99, -17.53, -20.56, -22.35, -21.17, -17.2, -12.89, -13.56, -13.2, -13.2, -13.2, -13.59, -12.16, -8.85, -8.43, -10.75, -13.99, -15.65, -15.65, -11.06, 0.0, 0.0, 15.2, 13.59, 11.06, 0.0, 0.0, 3.07, 8.28, 7.2, 6.34, 3.79, 0.0, -2.09, -5.18, -6.8, -2.98, -3.76, -4.66, -5.63, -5.28, -5.11, -5.4, -6.97, -4.32, 0.0, 0.0, -1.39, -5.18, -9.2, -12.45, -13.8, -15.2, -13.19, -12.39, -12.04, -11.87, -16.39, -16.09, -15.72, -15.33, -15.99, -15.93, -15.52, -15.69, -15.27, -14.6, -14.3, -12.87, -13.28, -12.27, -12.07, -11.62, -10.4, -4.48, -2.52, -1.33, -0.0, -0.0, -1.84, -1.39, -0.0, 3.14, 6.17, 6.95, 8.18, 3.53, -2.93, -6.2, -3.07, -0.0, 5.6, 7.59, 7.27, 10.73, 0.0, -9.8, -14.79, -18.96, -19.67, -17.43, -15.2, -13.86, -13.59, -14.11, -13.99, -12.65, -12.27, -11.87, -11.8, -12.27, -6.6, -6.6, -6.8, -11.06, -15.65, -11.06, -6.8, 0.0, 0.0, 13.19, 13.19, 6.8, 0.0, 0.0, 0.0, 8.0, 6.31, 2.57, 1.73, 0.0, 0.0, -3.01, -7.82, -8.43, -6.8, -7.69, -8.05, -8.73, -7.54, -7.26, -7.9, -6.45, 0.0, -1.64, -3.82, -8.91, -12.03, -13.82, -15.34, -14.75, -0.0, -6.0, -10.37, -10.73, -16.14, -15.83, -15.46, -15.7, -15.33, -15.99, -16.19, -15.52, -14.84, -14.84, -14.75, -13.86, -14.03, -12.79, -11.91, -12.07, -11.62, -5.4, -1.44, -1.2, -0.0, -0.0, -0.0, -0.0, -0.0, -0.0, 3.04, 8.53, 10.0, 10.28, -0.0, -0.0, -0.0, 1.77, 2.81, 3.47, 3.69, 6.2, -11.38, -14.95, -15.19, -14.11, -13.01, -13.86, -13.15, -7.69, -7.93, -10.12, -14.75, -15.2, -14.31, -13.88, -13.88, -13.99, -10.43, 0.0, -15.2, -15.65, -15.65, -6.8, -10.43, -10.12, 0.0, 13.19, 10.43, 0.0, 0.0, -11.7, -16.39, -17.99, -11.8, -5.65, -2.27, -1.73, -1.42, -0.99, -3.98, -7.58, -6.73, -6.9, -8.44, -9.17, -9.16, -8.73, -10.0, -10.79, -9.42, -7.14, -9.09, -11.64, -12.96, -14.53, -14.75, -11.16, -4.1, -6.0, -10.37, -10.73, -15.61, -15.25, -15.25, -15.09, -15.09, -15.7, -15.59, -15.77, -15.41, -15.27, -15.08, -14.3, -14.3, -12.96, -12.35, -11.95, -11.84, -5.4, -0.0, -0.0, -0.0, -0.0, 3.25, 6.0, 5.6, 2.93, -0.0, -0.0, -0.0, 0.0, 0.0, 9.2, 9.75, 1.76, -0.0, -0.0, -0.0, -0.0, -13.59, -12.27, -12.35, -14.3, -13.86, -10.12, -4.52, -3.58, 0.0, 0.0, -4.52, -10.12, -12.39, -13.15, -13.44, -14.3, -14.75, -14.75, -14.75, 0.0, -15.2, -13.19, -11.53, -9.48, 0.0, 15.2, 0.0, -12.01, -9.67, -13.76, -16.66, -20.12, -21.74, -18.84, -14.91, -11.27, -7.58, -4.86, -4.24, -5.27, -6.43, -6.3, -7.02, -8.75, -9.97, -10.4, -11.13, -11.28, -13.15, -14.81, -14.57, -13.58, -14.13, -15.53, -15.34, -9.17, -7.19, -9.48, -11.12, -11.2, -15.91, -15.61, -15.25, -14.88, -15.45, -15.7, -15.87, -16.19, -15.36, -14.99, -14.9, -13.75, -14.3, -12.58, -13.41, -11.62, -11.45, -5.6, -0.0, 2.93, 6.7, 4.24, 6.2, -0.0, 0.0, 0.0, -8.22, -11.45, -12.14, -10.18, 0.0, 8.8, 9.83, 2.28, -1.84, -0.0, -0.0, -4.24, -11.62, -9.2, -12.52, -12.71, -13.88, -14.9, -15.65, -14.9, -11.38, -3.69, -3.36, -6.2, -12.79, -11.53, -11.9, -13.99, -14.3, -13.86, 0.0, 0.0, -10.12, -9.8, -9.48, -9.48, 0.0, 0.0, -11.7, -14.79, -12.01, -11.38, -14.53, -17.74, -20.48, -19.44, -16.66, -15.2, -14.47, -12.57, -8.94, -5.45, -4.71, -6.42, -6.92, -9.59, -11.8, -13.65, -14.84, -16.53, -18.7, -18.99, -16.57, -15.33, -15.36, -17.43, -11.06, -8.38, -10.73, -11.12, -11.2, -11.26, -15.04, -15.04, -14.7, -14.7, -14.88, -15.45, -15.31, -15.46, -15.54, -15.09, -14.56, -13.77, -14.3, -11.99, -9.8, -9.66, -12.27, -13.41, 9.17, 11.2, 12.27, 12.27, 12.96, 0.0, -13.86, -12.07, -12.07, -11.62, -9.3, -6.2, -5.0, -0.0, -0.0, -4.8, -4.15, -1.58, -1.58, -5.75, -12.52, -11.28, -10.96, -12.07, -12.3, -13.32, -14.18, -15.87, -15.43, -15.61, -8.18, -10.12, -8.85, -12.72, -9.8, -6.2, 0.0, 0.0, 0.0, 0.0, 0.0, -3.14, -3.96, -9.48, -15.2, -15.65, -16.09, -12.01, -7.6, -5.81, -7.59, -13.42, -16.44, -17.16, -15.27, -15.12, -14.31, -13.39, -11.72, -8.83, -6.21, -7.1, -8.29, -10.04, -11.9, -13.99, -16.87, -19.34, -20.19, -19.18, -17.2, -14.59, -16.01, -12.7, -8.05, -10.82, -13.23, -12.35, -11.61, -12.14, -15.33, -15.04, -15.04, -14.7, -15.23, -15.45, -15.59, -15.68, -15.06, -15.12, -14.66, -13.63, -15.65, -13.23, -11.5, -9.17, -9.48, -6.0, 3.14, 11.2, 12.27, 12.52, 12.71, 9.8, -13.41, -12.52, -9.54, -7.59, -7.24, -5.95, -11.03, -11.45, -11.87, -11.45, -7.9, -2.02, -2.6, -6.44, -10.79, -11.18, -12.35, -12.52, -12.27, -13.15, -13.57, -12.66, -14.79, -16.12, -16.09, -13.59, -13.19, -11.6, -6.0, 0.0, 0.0, 0.0, 3.36, 0.0, 0.0, 0.0, 0.0, -10.75, -15.2, -15.65, 0.0, 0.0, 0.0, 0.0, 0.0, -2.89, -7.2, -8.51, -9.17, -10.02, -9.22, -10.12, -11.53, -10.23, -9.8, -9.39, -8.94, -8.72, -9.24, -10.84, -13.26, -15.87, -17.04, -16.34, -15.97, -14.11, -1.83, -6.67, -9.17, -11.99, -13.31, -12.52, -11.98, -11.78, -14.51, -14.88, -14.55, -15.04, -14.7, -15.23, -15.35, -15.19, -14.86, -14.86, -14.84, -14.53, -13.55, -12.94, -14.3, -13.23, -11.88, -11.09, 0.0, 12.96, 12.52, 12.52, 12.96, 13.41, -11.99, -9.66, -6.95, -5.2, -6.0, -11.45, -12.52, -14.3, -13.86, -11.45, -10.4, -6.45, -4.8, -6.32, -11.4, -12.52, -12.07, -12.35, -10.8, -11.03, -11.46, -11.92, -11.37, -12.79, -14.65, -15.65, -14.75, -10.43, 0.0, 0.0, 0.0, 0.0, 3.36, 0.0, 0.0, 0.0, 0.0, -5.23, -17.43, -16.09, -0.0, 0.0, 0.0, 2.65, 3.81, 2.35, 0.0, 0.0, -2.28, -2.28, -1.94, -3.01, -6.0, -8.85, -10.28, -11.26, -11.48, -9.41, -8.21, -8.2, -7.26, -8.05, -9.8, -10.77, -13.28, 9.17, 7.78, -3.96, -10.41, -12.39, -12.79, -12.47, -12.9, -12.27, -14.51, -14.51, -14.88, -14.55, -15.04, -15.23, -15.35, -14.56, -15.02, -14.61, -14.6, -13.97, -13.97, -13.94, -15.65, -14.3, -14.75, -14.19, -14.75, 0.0, -0.0, -0.0, -0.0, -0.0, -4.1, -6.44, -4.6, -0.0, -0.0, -12.52, -10.8, -6.95, 0.0, -9.83, -9.64, -11.28, -10.4, -10.4, -11.03, -12.04, -11.6, -8.85, -0.0, 0.0, -11.03, -10.79, -9.42, -9.62, -10.79, -11.5, -12.27, -11.38, 0.0, 0.0, 0.0, 0.0, 5.23, 0.0, 0.0, -2.63, -6.47, -8.0, -14.79, -16.09, -0.0, 0.0, 0.0, 4.34, 5.64, 5.8, 3.81, 1.83, 0.0, -2.0, -4.81, -4.58, -4.47, -5.78, -9.57, -11.76, -12.87, -12.9, -9.66, -7.18, -5.41, -4.05, -2.98, -2.01, 0.0, 2.91, 1.55, 0.0, -12.52, -12.27, -11.93, -12.81, -12.79, -12.75, -14.37, -14.37, -14.88, -14.88, -15.04, -15.04, -15.14, -14.79, -14.79, -15.02, -14.79, -14.38, -13.99, -14.24, -14.9, -14.75, -12.96, -12.52, -13.41, -0.0, -0.0, -0.0, -0.0, -0.0, -0.0, -0.0, -0.0, 4.71, 4.8, -2.6, -2.71, -0.0, -0.0, -0.0, -4.6, -8.93, -7.59, -6.97, -7.26, -7.54, -4.65, -0.0, 5.2, -0.0, -4.8, -7.27, -7.24, -7.51, -7.78, -8.31, -10.12, -9.92, -13.28, -14.22, -0.0, -0.0, -0.0, 0.0, 0.0, -5.15, -9.2, -12.96, -15.59, -11.38, -14.39, -13.59, -0.0, 22.8, 11.16, 6.31, 5.18, 4.38, 3.2, 0.0, -1.43, -4.32, -5.57, -7.92, -8.2, -9.91, -12.11, -12.11, -12.7, -9.01, -6.31, -4.66, -3.99, -3.3, -2.72, -1.83, -1.77, -2.28, -5.98, -10.79, -12.52, -12.9, -12.71, -12.71, -14.37, -14.37, -14.78, -14.88, -15.33, -15.04, -15.14, -14.75, -14.79, -14.39, -14.39, -13.99, -13.99, -14.39, -15.11, -16.44, -15.65, -14.75, -12.39, -0.0, -0.0, -0.0, -0.0, 2.43, 4.52, 4.38, 6.0, 5.11, 2.62, -0.89, -1.84, -0.0, 1.76, -0.0, -0.0, -0.0, -1.69, -1.84, -1.58, -1.58, -0.0, -0.0, 3.53, -0.0, -3.25, -7.59, -8.22, -8.53, -10.12, -10.47, -10.19, -9.48, -10.99, -11.87, -13.59, -12.96, -12.07, -16.12, -11.38, -7.54, -11.38, -13.23, -17.43, -15.27, -16.39, -17.25, -13.96, -15.02, -24.59, 0.0, 0.0, 2.97, 1.77, 0.0, -0.82, -3.68, -6.6, -8.11, -9.16, -9.73, -9.88, -10.76, -11.96, -13.23, -9.42, -7.94, -7.49, -7.26, -6.13, -5.02, -4.38, -4.17, -4.54, -5.98, -8.85, -11.5, -12.79, -13.41, -14.64, -14.37, -14.73, -15.16, -14.88, -15.33, -14.95, -14.99, -14.99, -14.59, -14.39, -13.99, -13.99, -14.61, -14.79, -16.32, -17.43, -16.99, -14.39, -0.0, -0.0, -0.0, -0.0, 2.15, 1.94, 3.3, 2.98, 2.89, 1.25, -0.0, -0.0, -0.0, -0.0, -0.0, -0.0, -1.62, -1.62, -0.0, -0.0, -0.0, -0.0, -0.0, -0.0, -0.0, -6.95, -9.2, -8.4, -8.94, -9.97, -10.41, -10.41, -9.42, -10.35, -10.35, -10.73, -10.19, -10.18, -14.77, -21.46, -10.65, -11.88, -15.65, -16.05, -16.48, -16.31, -14.79, -13.61, -15.38, -20.63, -22.8, -18.95, -8.3, -4.45, -2.71, -4.17, -6.6, -7.84, -9.67, -10.61, -11.29, -10.43, -10.15, -9.91, -10.22, -12.73, -12.12, -11.28, -10.17, -8.97, -6.99, -5.73, -4.58, -5.2, -6.08, -7.11, -7.44, -6.67, -6.67, -14.64, -14.64, -14.73, -15.16, -15.16, -15.25, -15.33, -14.95, -14.57, -14.59, -13.97, -13.99, -14.39, -14.79, -14.79, -15.93, -16.91, -17.43, -16.54, -7.6, -5.23, -0.0, -0.0, -0.0, 1.73, 1.73, 1.51, 1.47, 1.42, 1.38, -0.0, -0.0, -0.0, -3.25, -4.6, -4.6, -0.0, -0.0, -0.0, -0.0, -0.0, -0.0, -0.0, -0.0, -0.0, 0.0, 0.0, -10.28, -9.6, -7.9, -6.97, -6.71, -5.95, -4.2, -6.95, -0.0, -4.32, -10.82, -18.08, -17.2, -12.96, -11.6, -13.44, -14.03, -14.6, -14.23, -14.46, -14.85, -13.97, -19.08, -20.56, -18.4, -12.62, -7.51, -8.66, -10.68, -10.46, -10.52, -11.19, -11.06, -10.13, -7.6, -5.81, -4.58, -5.36, -11.95, -11.54, -10.87, -9.81, -8.67, -7.6, -5.67, -5.4, -6.31, -7.44, -6.43, -5.11, -5.11, -14.24, -14.64, -15.01, -14.73, -15.16, -15.54, -15.16, -15.33, -14.57, -14.18, -14.2, -14.2, -14.39, -15.2, -15.42, -15.46, -15.93, -17.26, -17.88, -12.33, -5.51, -2.79, -0.0, -0.0, -0.0, 1.56, 1.51, -0.0, -0.0, -0.0, -0.0, -0.0, -0.0, -0.0, -0.0, -0.0, -0.0, 2.02, 2.6, 2.02, -0.0, -0.0, -0.0, -0.0, -0.0, -0.0, 9.83, 0.0, 0.0, -0.0, -0.0, -0.0, -0.0, 0.0, 9.39, 9.83, 7.27, -9.67, -13.7, -15.34, -11.71, -10.4, -11.62, -12.07, -12.07, -12.96, -11.6, -10.75, -9.35, -12.29, -20.63, -17.81, -15.44, -14.26, -11.95, -14.53, -14.29, -12.36, -9.43, -6.81, 0.0, 0.0, 0.0, -1.34, -1.98, -2.94, -8.91, -8.54, -7.96, -8.66, -8.2, -7.01, -7.38, -7.89, -7.62, -7.41, -6.94, -6.94, -14.51, -14.24, -15.01, -15.01, -15.41, -15.54, -15.54, -15.16, -14.78, -14.57, -14.2, -14.2, -14.99, -14.79, -15.61, -15.42, -15.46, -16.54, -17.43, -16.91, -9.67, -3.33, -0.0, -0.0, -0.0, 1.78, -0.0, -0.0, -0.0, -0.0, -0.0, -0.0, 1.61, -0.0, -0.0, 1.84, 1.62, 2.1, 2.49, -0.0, -0.0, -0.0, -0.0, -0.0, -0.0, -0.0, -0.0, -0.0, 0.0, 10.28, 10.28, -0.0, 0.0, 0.0, 0.0, 0.0, 0.0, 10.73, 0.0, 0.0, -12.52, 0.0, 10.73, 10.73, 0.0, -4.6, -11.62, -6.97, -7.69, -13.61, -21.9, -17.16, -15.8, -17.93, -15.63, -17.26, -17.57, -15.36, -8.8, -4.55, 0.0, 0.0, -3.33, -3.42, -3.93, -3.42, -2.93, -5.8, -7.44, -8.31, -8.72, -7.79, -8.01, -8.3, -8.49, -8.07, -8.32, -8.32, -14.51, -14.24, -15.01, -15.01, -15.01, -15.8, -15.54, -15.16, -14.78, -14.57, -14.18, -14.2, -14.59, -14.79, -15.19, -14.56, -15.59, -15.59, -16.48, -16.54, -13.76, -7.6, -2.34, -0.0, -0.0, 1.78, -0.0, -0.0, -0.0, -0.0, 1.56, 1.51, 3.1, 2.52, 3.39, 3.25, 1.39, -0.0, -0.0, -0.0, -3.11, -3.11, -0.0, -0.0, -0.0, -0.0, -0.0, 0.0, 0.0, 0.0, 10.28, 10.28, 0.0, 0.0, 0.0, 0.0, 0.0, 7.59, 10.0, 7.9, 0.0, 0.0, 0.0, 10.73, 10.73, 9.83, 6.64, -10.28, -8.53, -13.58, -19.99, -18.66, -18.26, -19.48, -16.54, -16.94, -17.81, -18.21, -16.87, -13.28, -12.33, -9.92, -10.52, -7.11, -7.01, -6.21, -7.38, -4.81, -7.2, -9.62, -9.67, -7.9, -7.85, -8.53, -10.12, -8.67, -8.85, -8.85, -14.51, -14.51, -14.64, -14.64, -15.01, -15.01, -15.8, -15.16, -15.16, -14.78, -14.18, -14.18, -14.59, -15.39, -14.99, -17.16, -14.56, -14.79, -14.71, -15.47, -16.54, -16.54, -5.23, -2.79, -0.0, -0.0, -0.0, -0.0, -0.0, -0.0, 1.42, 1.42, 2.63, 3.47, 3.82, 3.67, 1.69, -0.89, -1.84, -2.6, -3.65, -2.49, -0.0, -0.0, -0.0, -0.0, -0.0, 0.0, 0.0, 0.0, 10.28, 10.28, 10.28, 10.28, 10.28, 10.28, 7.27, 7.9, 5.4, 0.0, 0.0, 0.0, 0.0, 9.83, 8.8, 9.39, 9.39, 0.0, -3.39, -12.79, -12.64, -12.57, -14.52, -14.75, -18.33, -16.54, -16.09, -16.54, -16.86, -16.27, -14.29, -14.06, -12.49, -12.07, -11.76, -11.76, -11.7, -11.72, -9.7, -10.18, -10.99, -9.48, -9.48, -9.84, -10.65, -10.58, -10.3, -10.3, -14.51, -14.51, -14.51, -14.64, -15.01, -15.01, -15.01, -15.01, -14.73, -14.78, -14.81, -14.18, -14.59, -14.99, -15.39, -14.79, -14.79, -14.21, -16.12, -15.36, -16.19, -16.76, -13.59, -6.47, -5.09, -5.81, -2.89, -0.0, -0.0, -0.0, -0.0, 1.25, 2.37, 2.37, 3.34, 2.82, 1.92, -0.0, -1.07, -2.23, -1.33, -0.0, -0.0, -0.0, -0.0, -0.0, -0.0, 0.0, 0.0, 0.0, 9.83, 10.28, 10.73, 11.18, 9.83, 8.8, 5.0, 3.39, 0.0, 0.0, -5.0, 0.0, 0.0, 10.73, 10.28, 10.28, 9.2, 6.2, 3.82, 5.28, 3.59, 1.78, 0.0, -2.19, -9.4, -15.61, -15.47, -16.47, -17.36, -16.2, -14.71, -14.46, -14.49, -13.89, -13.51, -12.35, -10.46, -8.76, -9.8, -9.69, -10.85, -10.9, -11.49, -11.53, -11.75, -12.37, -11.8, -11.8, -14.51, -14.51, -14.51, -14.51, -14.64, -14.64, -15.01, -15.01, -15.01, -15.16, -14.4, -14.42, -14.42, -15.19, -15.19, -14.99, -14.99, -14.53, -14.18, -16.48, -16.76, -15.34, -15.87, -10.3, -7.82, -6.54, -3.2, -1.53, -0.0, -0.0, -0.0, 1.28, 1.28, 1.28, 2.52, 2.42, 1.23, 1.18, -0.0, -0.0, -0.0, -0.0, -0.0, -0.0, -0.0, -0.0, -0.0, -0.0, -0.0, 7.27, 6.95, 7.27, 10.73, 11.18, 10.73, 9.2, 9.3, 7.9, 0.0, -7.9, -7.9, -11.18, 0.0, 11.18, 10.28, 10.73, 10.73, 10.8, 9.17, 8.87, 9.09, 7.58, 3.53, -6.88, -13.23, -14.85, -16.67, -17.86, -21.4, -18.76, -16.62, -14.56, -12.65, -11.03, -10.73, -10.02, -8.59, -4.24, -1.66, -7.02, -8.85, -10.24, -11.52, -10.81, -11.88, -12.41, -12.13, -12.13, -14.36, -14.51, -14.51, -14.51, -14.51, -14.64, -14.64, -15.01, -15.01, -14.37, -14.4, -14.03, -14.42, -14.81, -15.01, -15.19, -15.19, -14.58, -14.94, -15.9, -15.68, -15.15, -14.64, -10.75, -7.2, -5.81, -3.9, -1.89, -1.72, -0.0, -0.0, -0.0, -0.0, 1.44, 1.64, 1.58, 1.64, 1.91, -0.0, -0.0, -0.0, -0.0, -0.0, -0.0, -0.0, -0.0, -0.0, -0.0, -0.0, -0.0, 7.27, 7.59, 10.73, 11.18, 10.73, 11.18, 11.28, 12.14, 11.62, -10.73, -10.28, -10.73, 0.0, 11.18, 11.18, 11.18, 11.62, 12.07, 12.71, 14.47, 15.43, 16.74, 15.17, -4.73, -10.75, -11.47, -14.13, -16.57, -17.86, -20.0, -18.33, -15.94, -14.86, -13.29, -10.86, -7.44, -4.24, -3.93, -6.18, -4.33, -5.99, -9.1, -10.48, -11.17, -11.9, -11.9, -11.8, -11.8, -14.36, -14.36, -14.13, -14.51, -14.51, -14.51, -14.64, -14.64, -14.64, -14.64, -14.0, -14.03, -14.03, -14.26, -15.01, -15.01, -14.81, -14.79, -14.99, -15.42, -16.05, -16.03, -14.68, -11.9, -8.18, -6.16, -6.34, -4.42, -2.15, -0.0, -0.0, -0.0, -0.0, -0.0, 2.28, 2.28, 2.28, 2.82, 2.82, 2.82, 3.68, 3.68, 3.68, 5.2, 5.2, 3.53, -0.0, -0.0, -0.0, -0.0, 10.28, 10.73, 10.73, 11.18, 10.73, 10.73, 11.18, 12.71, 12.3, -0.0, -8.4, -7.27, 0.0, 11.62, 11.18, 11.18, 11.62, 11.18, 11.62, 11.62, 13.15, 15.99, 26.37, -0.0, -8.05, -9.62, -11.6, -11.25, -13.26, -16.51, -17.31, -16.99, -15.53, -14.95, -13.43, -11.09, -10.43, -10.12, -10.75, -11.83, -8.76, -9.37, -10.63, -10.12, -10.12, -8.58, -7.93, -7.93, -14.36, -14.36, -14.36, -13.77, -14.51, -14.51, -14.51, -14.24, -14.24, -14.24, -14.0, -13.63, -14.03, -14.26, -14.64, -15.01, -15.01, -14.42, -14.59, -15.19, -15.46, -16.22, -15.65, -14.75, -11.17, -9.22, -7.82, -5.81, -3.07, -2.98, -0.0, -0.0, -0.0, -0.0, 3.68, 3.53, 5.0, 5.0, 5.2, 5.2, 5.2, 5.2, 8.22, 8.22, 8.22, 7.9, 0.0, 0.0, 0.0, 0.0, 11.62, 11.18, 10.73, 10.73, 10.28, 10.28, 9.97, 10.04, 11.6, 0.0, 0.0, 0.0, 0.0, 11.62, 11.18, 12.07, 11.71, 11.87, 11.18, 10.6, 0.0, -11.41, 0.0, 19.91, 11.7, -12.72, -12.33, -10.37, -8.85, -10.01, -13.67, -15.58, -17.42, -15.96, -14.7, -13.99, -13.99, -14.7, -15.74, -14.11, -11.62, -9.48, -9.8, 0.0, 0.0, -7.36, -6.2, -6.2, -14.02, -14.02, -14.02, -13.77, -13.77, -13.77, -14.51, -14.24, -14.24, -14.24, -13.88, -13.63, -13.63, -13.89, -14.26, -14.64, -14.26, -14.42, -14.18, -14.36, -15.42, -15.96, -16.46, -16.09, -14.42, -13.7, -11.8, -10.43, -8.43, -4.66, -0.0, -0.0, -0.0, -0.0, 8.85, 8.22, 11.18, 11.18, 11.18, 11.62, 11.62, 11.62, 11.18, 11.18, 11.18, 10.73, 11.62, 10.73, 9.83, 9.83, 10.73, 12.52, 10.73, 10.73, 10.28, 10.28, 9.2, 8.18, 8.22, 12.52, 5.0, 2.28, 4.4, 7.59, 11.62, 12.07, 11.84, 11.21, 10.8, 0.0, -7.44, -5.81, 0.0, 7.29, 10.66, 7.64, 2.53, -7.0, -10.12, -7.11, -7.34, -13.02, -16.09, -20.12, -19.07, -17.91, -17.64, -16.55, -12.89, -13.33, -13.82, -9.71, -5.31, 0.0, -2.2, -3.81, -4.38, -4.38, -13.65, -13.65, -13.65, -13.77, -13.77, -13.77, -13.77, -13.88, -14.24, -14.24, -13.88, -13.59, -13.23, -13.63, -13.89, -13.89, -14.26, -14.03, -14.03, -14.18, -14.47, -15.19, -15.77, -16.15, -15.65, -15.2, -14.75, -14.3, -14.3, -10.12, -10.12, -0.0, 0.0, 0.0, 12.52, 12.07, 11.62, 11.18, 11.18, 11.18, 11.18, 11.62, 11.18, 11.18, 9.6, 9.6, 10.4, 9.2, 8.8, 8.8, 10.6, 10.6, 12.52, 12.07, 11.18, 10.73, 9.2, 4.4, 4.6, 8.22, 8.53, 6.7, 5.63, 6.95, 10.6, 12.07, 12.52, 12.27, 7.78, 0.0, -2.93, -3.47, 0.0, 2.19, 8.62, 14.63, 9.18, 0.0, -5.11, -8.22, -8.05, -6.73, -12.45, -13.77, -15.65, -17.27, -15.9, -14.13, -14.75, -15.2, -16.99, -10.33, -4.18, -3.79, -3.36, -3.93, -1.96, -1.96, -13.65, -13.65, -13.65, -13.77, -13.77, -13.41, -13.77, -13.49, -13.49, -13.49, -13.49, -13.49, -13.23, -13.23, -13.23, -13.63, -13.63, -13.63, -14.03, -13.76, -13.91, -13.76, -14.52, -15.11, -15.07, -14.84, -14.9, -14.31, -13.57, -12.39, -9.48, 0.0, 0.0, 0.0, 3.96, 3.96, 3.96, 6.7, 6.7, 6.45, 6.2, 6.45, 6.45, 7.59, 7.27, 7.9, 7.9, 7.27, 6.95, 6.95, 7.59, 9.3, 8.55, 9.75, 11.18, 10.73, 7.59, 3.25, 2.28, -0.0, 12.07, 9.3, 7.9, 7.59, 10.41, 11.28, 11.71, 10.37, 6.67, 4.1, 0.0, -2.2, -1.83, 0.0, 4.88, 8.62, 0.0, -1.78, -3.56, -6.95, -8.93, -8.44, -7.58, -8.3, -13.15, -14.62, -15.65, -0.0, 15.2, 0.0, -15.2, -15.54, -10.7, -9.49, -7.38, -5.63, -2.02, -2.02, -13.65, -13.65, -13.65, -13.77, -13.77, -13.41, -13.41, -13.11, -13.49, -13.49, -13.49, -13.49, -13.49, -13.18, -13.59, -13.23, -13.63, -13.63, -13.34, -13.34, -13.46, -13.6, -13.38, -13.18, -12.87, -12.73, -11.87, -8.43, -7.59, -5.31, -2.72, 0.0, 0.0, 0.0, 2.45, 2.45, 2.45, 4.65, 4.48, 4.48, 4.32, 4.32, 5.75, 5.29, 5.06, 3.98, 3.82, 5.7, 5.46, 5.7, 7.9, 7.59, 7.59, 9.75, 10.18, 11.62, 7.9, -0.0, -0.0, -0.0, 5.0, 7.9, 6.2, 8.53, 9.3, 12.14, 11.99, 6.94, 2.93, 2.54, 2.35, 0.0, -3.68, -4.87, -5.34, -8.8, -14.55, -11.17, -7.69, -6.42, -9.58, -9.52, -8.97, -6.63, -5.6, -8.87, -4.66, 11.06, 4.95, -3.58, -10.43, -13.58, -13.6, -12.97, -10.15, -7.0, -4.18, -4.18, -13.65, -13.65, -13.65, -13.41, -13.41, -13.41, -13.41, -13.11, -13.11, -13.49, -13.49, -13.11, -13.11, -13.18, -13.18, -12.84, -12.92, -12.92, -12.92, -12.56, -13.01, -12.29, -12.36, -11.96, -11.69, -10.39, -8.43, -8.06, -5.18, -3.58, -2.02, 0.0, 0.0, 0.0, 1.83, 2.06, 2.06, 2.06, 3.82, 3.82, 3.68, 3.68, 5.0, 5.4, 5.4, 4.05, 2.97, 1.62, 2.02, 3.25, 3.53, 4.8, 7.27, 9.2, 10.18, 10.18, 12.07, -0.0, -0.0, -0.0, 5.0, 7.9, 6.7, 10.41, 11.45, 12.04, 11.09, 8.85, 0.0, 0.0, 0.0, 0.0, -1.96, -6.0, -9.5, -12.96, -16.37, -16.69, -16.79, -13.59, -11.2, -9.4, -10.25, -8.12, -6.87, -4.71, -1.9, -2.43, -2.5, -2.5, -6.6, -8.43, -4.95, -12.22, -12.01, -8.74, -5.23, -5.23, -13.65, -13.65, -13.65, -13.41, -13.41, -13.41, -13.41, -12.74, -13.11, -13.11, -13.11, -12.78, -12.78, -12.78, -12.78, -12.5, -12.5, -12.5, -12.12, -12.22, -11.83, -11.83, -10.57, -10.02, -9.91, -8.94, -7.82, -6.8, -5.48, -3.2, -1.58, 0.0, 0.0, 0.0, 0.0, 1.55, 1.55, 1.77, 3.32, 3.32, 3.32, 3.19, 3.19, 2.95, 3.07, 5.2, 2.71, 2.82, 1.69, 2.19, 0.0, 0.0, 7.27, 9.2, 9.6, 10.18, 8.8, 11.18, -0.0, -0.0, 7.59, 7.9, 5.4, 11.62, 12.07, 12.27, 11.99, 10.12, 5.0, 0.0, 0.0, 0.0, 1.6, 0.0, -6.84, -12.17, -13.91, -14.19, -17.39, -18.68, -19.93, -14.18, -12.04, -10.41, -8.22, -7.58, -6.2, -6.4, -4.66, 0.0, 14.75, 11.06, 11.06, -7.0, -8.93, -7.8, -3.42, -3.42, -13.65, -13.65, -13.32, -13.06, -13.06, -13.41, -13.41, -12.74, -12.4, -12.4, -12.78, -12.78, -12.78, -12.78, -12.42, -12.09, -11.76, -11.7, -11.7, -11.7, -11.38, -10.18, -10.11, -9.54, -9.12, -8.43, -6.6, -6.1, -3.76, -2.64, -2.64, -1.42, 0.0, 0.0, 0.0, 1.43, 1.38, 1.55, 1.55, 2.93, 2.93, 2.93, 2.82, 2.71, 2.95, 2.93, 2.37, 2.6, 1.45, 1.84, 1.76, 2.02, 4.6, 9.6, 9.6, 10.18, 9.75, 11.03, 9.6, 11.18, 0.0, 0.0, 12.07, 10.4, 11.45, 11.62, 11.4, 10.79, 8.53, 0.0, 4.2, 5.0, 7.0, 8.18, 2.61, -6.42, -10.33, -10.43, -12.71, -15.36, -19.59, -18.65, -15.18, -13.02, -11.09, -10.54, -9.67, -8.31, -7.93, -0.0, 6.6, 14.75, 10.75, 0.0, 0.0, 0.0, 0.0, 0.0, -12.96, -12.96, -13.06, -13.06, -13.06, -13.06, -13.06, -12.4, -12.4, -12.4, -12.07, -12.39, -12.39, -12.42, -12.42, -12.09, -11.38, -10.98, -10.83, -10.05, -9.25, -9.25, -9.09, -8.22, -7.97, -7.21, -6.18, -5.5, -4.3, -3.65, -2.56, -1.3, 0.0, 0.0, 0.0, 0.0, 1.29, 1.43, 1.38, 1.38, 1.33, 1.33, 1.44, 1.44, 1.39, 1.39, 1.39, 2.6, 2.95, 3.07, 3.39, 3.25, 3.98, 4.8, 5.7, 8.55, 9.3, 9.3, 8.93, 8.55, 8.53, 11.62, 11.62, 11.18, 11.62, 11.18, 10.28, 11.03, 8.85, 6.7, 8.23, 7.59, 7.69, 4.55, 5.05, 0.0, -7.58, -10.4, -8.66, -8.87, -7.22, -9.2, -12.01, -13.02, -11.77, -11.96, -10.52, -10.43, -10.12, 0.0, 0.0, 0.0, 0.0, 0.0, 0.0, 0.0, 0.0, 0.0, -12.96, -12.96, -12.7, -13.06, -13.06, -13.06, -13.06, -12.4, -12.4, -11.7, -11.7, -11.7, -12.39, -12.01, -12.42, -11.7, -11.7, -10.54, -10.05, -10.05, -9.25, -8.68, -8.43, -7.82, -7.54, -6.6, -6.18, -5.14, -4.38, -4.18, -2.4, -1.25, -1.25, 0.0, 0.0, 0.0, 0.0, 1.33, 1.29, 1.25, 1.38, 1.38, 1.33, 1.28, 1.39, 1.39, 1.39, 1.33, 1.52, 2.95, 3.25, 3.25, 4.15, 3.98, 4.6, 4.8, 6.44, 7.59, 8.23, 8.58, 9.6, 10.73, 11.62, 10.73, 11.18, 11.18, 10.73, 9.75, 8.22, 9.17, 9.42, 7.9, 3.68, 0.0, 0.0, 0.0, 0.0, -14.75, -9.8, -4.05, -1.34, -1.54, 0.0, -2.94, -3.69, -6.72, -7.2, -6.8, -4.52, 0.0, 0.0, 0.0, 0.0, -4.52, -2.81, -2.98, -2.5, -2.5, -12.96, -12.96, -12.7, -12.7, -13.06, -13.06, -13.06, -12.4, -12.4, -11.7, -11.7, -11.7, -11.31, -11.62, -11.29, -11.29, -10.54, -10.54, -10.05, -9.25, -9.25, -8.43, -7.82, -7.82, -6.94, -6.6, -5.63, -5.99, -5.3, -4.21, -3.25, -2.2, -1.11, -1.25, 0.0, 0.0, 0.0, 0.0, 0.0, 0.0, 0.0, 0.0, 0.0, 0.0, 0.0, 0.0, 0.0, 1.33, 1.33, 1.52, 1.52, 3.53, 3.39, 3.82, 3.82, 3.82, 4.6, 5.9, 8.23, 8.58, 11.2, 11.18, 11.18, 11.18, 10.28, 10.73, 10.73, 10.18, 11.03, 10.41, 9.77, 8.85, 2.45, -1.38, -4.65, 0.0, 3.6, 5.06, 4.23, 0.0, -1.3, -2.4, -2.58, -1.41, -1.69, -1.15, -1.15, -1.08, 0.0, 0.0, 0.0, 0.0, 0.0, -3.25, -4.98, -2.43, -4.81, -4.81, -12.7, -12.7, -12.7, -12.36, -12.36, -12.71, -12.4, -12.4, -12.4, -11.7, -11.7, -11.31, -11.31, -11.62, -10.89, -10.43, -10.15, -9.66, -9.66, -9.12, -8.29, -8.06, -7.45, -6.8, -6.94, -6.24, -5.63, -5.63, -4.81, -4.21, -3.22, -2.11, -2.2, -1.11, -1.11, 0.0, 0.0, 0.0, 0.0, 0.0, 0.0, 0.0, 0.0, 0.0, 0.0, 0.0, 0.0, 0.0, 0.0, 1.52, 1.52, 1.84, 1.76, 3.25, 3.98, 3.82, 3.65, 5.9, 5.9, 7.27, 7.87, 11.03, 10.73, 11.18, 11.18, 11.18, 10.73, 11.18, 10.6, 9.66, 8.85, 8.31, 4.52, 0.0, -1.4, 0.0, 4.46, 7.13, 6.5, 2.12, -2.04, -5.37, -5.62, -4.81, -2.57, -1.83, -0.87, 0.0, 0.0, 0.0, 0.0, 0.0, 0.0, 0.0, -2.54, -4.81, -4.66, -4.66, -12.35, -12.35, -12.36, -12.36, -12.36, -12.07, -12.4, -12.4, -12.4, -11.7, -11.7, -11.31, -11.31, -10.89, -10.51, -10.05, -9.28, -9.28, -8.74, -8.53, -8.29, -7.45, -7.45, -6.6, -5.91, -6.24, -5.31, -4.52, -4.81, -3.93, -3.0, -2.02, -2.11, -2.04, -1.03, -1.11, -1.11, -1.21, -1.21, -1.21, 0.0, 0.0, 0.0, 0.0, 0.0, 0.0, 0.0, 0.0, 0.0, 1.58, 1.52, 1.52, 1.76, 3.39, 3.25, 3.65, 3.65, 5.06, 5.9, 6.17, 7.27, 8.0, 10.73, 10.28, 10.28, 10.0, 10.28, 10.73, 11.18, 9.3, 7.19, 6.67, 4.95, 4.12, 2.72, 0.0, 2.65, 5.07, 4.42, 0.95, -0.96, -4.54, -6.4, -6.67, -4.24, -1.43, -1.29, -1.38, 0.0, 0.0, 0.0, 0.0, 0.0, 0.0, 0.0, -2.54, -5.15, -5.15, -12.35, -12.35, -12.36, -12.36, -12.07, -12.07, -12.4, -12.4, -12.07, -11.7, -11.7, -11.31, -11.31, -10.89, -10.51, -10.05, -9.28, -9.28, -8.74, -8.16, -7.93, -7.11, -6.47, -6.28, -5.62, -5.18, -5.02, -4.52, -4.52, -3.69, -3.0, -3.0, -2.02, -2.11, -2.11, -2.04, -2.2, -2.2, -1.21, -1.21, -1.33, -1.29, 0.0, 0.0, 0.0, 0.0, 0.0, 0.0, 0.0, 0.0, 1.58, 1.52, 1.52, 3.39, 3.11, 3.11, 3.65, 4.83, 5.06, 5.9, 6.95, 7.51, 10.28, 9.83, 10.73, 7.9, 9.83, 10.28, 9.6, 7.59, 6.45, 7.78, 8.05, 8.4, 6.64, 1.27, -1.53, -2.58, -3.67, -3.83, -2.78, 0.0, 0.0, -5.8, -4.48, -2.13, -1.66, -1.61, -1.61, 0.0, 0.0, 0.0, 0.0, 0.0, 0.0, -1.83, -2.2, -2.63, -12.35, -12.35, -12.02, -12.07, -12.07, -12.07, -11.72, -11.38, -11.7, -11.7, -11.7, -11.01, -11.01, -10.6, -10.51, -9.78, -9.78, -9.28, -8.74, -8.16, -7.93, -7.32, -6.47, -6.28, -5.62, -5.45, -5.02, -4.27, -4.52, -4.52, -3.93, -3.93, -3.0, -3.0, -2.11, -2.11, -2.2, -2.2, -2.4, -1.21, -1.21, -1.29, 0.0, 0.0, 0.0, 0.0, 0.0, 0.0, 0.0, 0.0, 0.0, 1.52, 1.52, 1.45, 3.11, 3.11, 2.97, 3.49, 4.83, 5.06, 5.9, 6.64, 7.59, 9.39, 9.83, 9.6, 9.6, 9.2, 9.6, 7.9, 7.9, 9.17, 8.18, 7.8, 10.21, 8.01, 1.34, -5.19, -9.2, -7.81, -3.69, -0.95, 0.0, -2.09, -3.36, -3.25, -2.28, -1.96, -1.9, 0.0, 0.0, 0.0, 0.0, 0.0, 0.0, -1.43, -1.66, -2.2, -12.35, -12.35, -12.02, -11.73, -12.07, -11.72, -11.38, -11.38, -11.38, -11.38, -11.01, -10.65, -10.51, -10.51, -10.05, -10.05, -10.05, -9.28, -8.74, -8.5, -7.93, -7.11, -7.11, -6.28, -6.28, -5.45, -5.02, -5.02, -4.27, -4.52, -4.52, -3.93, -3.93, -3.22, -3.22, -2.18, -2.11, -2.2, -2.2, -1.21, -1.21, -1.17, -1.29, 0.0, 0.0, 0.0, -1.2, -1.33, 0.0, 0.0, 0.0, 0.0, 1.52, 1.45, 1.62, 1.62, 2.97, 3.32, 4.83, 4.83, 5.06, 5.63, 5.37, 6.95, 9.2, 9.2, 8.8, 9.2, 9.6, 7.9, 7.9, 6.45, 9.8, 9.39, 10.42, 15.86, 11.83, 2.45, -4.11, -8.31, -6.65, -4.24, -2.2, 0.0, 0.0, -3.47, -2.81, -2.43, -2.35, -2.28, -1.96, -1.96, -1.72, -1.53, -1.48, -1.48, -2.81, -1.66, -12.35, -12.35, -11.73, -11.73, -11.73, -11.39, -11.38, -11.38, -11.38, -11.01, -10.65, -10.51, -10.51, -10.51, -10.05, -10.05, -9.54, -9.28, -8.74, -8.5, -7.71, -7.11, -6.9, -6.28, -6.28, -5.45, -5.73, -5.02, -5.31, -4.52, -4.81, -3.81, -3.93, -3.22, -3.22, -3.22, -2.11, -2.11, -2.28, -1.15, -1.11, -1.17, -1.17, -1.13, -1.13, 0.0, 0.0, 0.0, 0.0, 0.0, 0.0, 0.0, 0.0, 0.0, 1.39, 1.54, 1.54, 2.83, 2.83, 2.97, 4.83, 4.83, 4.8, 6.95, 6.95, 7.27, 8.8, 10.73, 10.28, 10.6, 9.67, 6.45, 5.8, 7.69, 11.06, 13.38, 15.64, 12.19, 5.26, 0.0, -4.66, -6.6, -4.18, -1.78, -2.65, -5.64, -5.48, -4.66, -4.66, -4.52, -4.52, -3.93, -3.81, -3.01, -2.91, -2.81, -3.14, -3.14, -11.73, -11.73, -11.73, -11.73, -11.73, -11.06, -11.38, -11.38, -11.01, -11.01, -10.51, -10.51, -10.51, -10.05, -10.05, -9.54, -9.54, -9.28, -8.74, -7.93, -7.71, -7.11, -6.9, -6.28, -6.28, -5.62, -5.73, -5.02, -5.31, -4.52, -4.52, -3.93, -3.93, -3.93, -3.12, -3.22, -2.18, -2.18, -2.18, -2.28, -1.15, -1.11, -1.17, -1.17, -1.08, 0.0, 0.0, 0.0, 0.0, 0.0, 0.0, 0.0, 0.0, 0.0, 0.0, 1.33, 1.26, 2.46, 2.83, 2.83, 2.97, 4.0, 3.15, 6.95, 6.95, 6.95, 7.27, 10.28, 10.28, 10.6, 9.67, 7.9, 9.17, 6.94, 8.18, 5.98, 6.93, 10.04, 10.93, 10.52, 9.32, 6.88, 4.12, 1.41, -1.93, -8.51, -9.22, -8.94, -9.22, -6.4, -6.4, -7.93, -6.88, -6.0, -5.27, -4.55, -4.55, -4.55, -11.4, -11.4, -11.73, -11.73, -11.41, -11.06, -11.38, -11.38, -11.01, -11.01, -10.51, -10.51, -10.05, -10.05, -10.05, -9.54, -9.28, -8.74, -8.74, -7.71, -7.71, -6.9, -6.9, -6.28, -6.28, -5.62, -5.73, -5.02, -5.02, -4.52, -4.52, -3.93, -3.93, -3.93, -2.9, -3.0, -3.22, -2.18, -2.18, -2.18, -2.28, -1.11, -1.11, -1.08, -1.08, -1.08, 0.0, 0.0, 0.0, 0.0, 0.0, 0.0, 0.0, 0.0, 0.0, 1.11, 1.11, 1.2, 2.33, 2.46, 2.46, 2.46, 2.83, 4.8, 4.4, 6.95, 7.27, 9.6, 10.28, 10.6, 7.9, 7.59, 9.67, 9.17, 6.0, 2.5, 3.2, 6.1, 11.97, 13.66, 14.13, 13.39, 11.56, 7.8, 5.87, 0.0, -12.22, -12.27, -10.12, -10.12, -8.87, -8.87, -8.05, -7.11, -6.87, -6.87, -6.87, -6.87, -11.4, -11.4, -11.4, -11.41, -11.06, -11.06, -11.06, -10.7, -11.01, -11.01, -10.23, -10.23, -10.51, -9.78, -9.78, -9.28, -9.28, -8.5, -8.5, -7.71, -6.9, -6.9, -6.28, -6.28, -5.62, -5.45, -5.45, -5.02, -5.02, -4.27, -4.52, -4.52, -3.69, -3.93, -3.0, -3.0, -3.0, -3.0, -2.18, -2.18, -2.11, -2.28, -2.2, -2.13, -2.13, -1.13, -1.13, 0.0, 0.0, 0.0, 0.0, 0.0, 0.0, 0.0, 0.0, 1.05, 1.05, 1.0, 1.0, 1.05, 1.2, 2.46, 2.46, 1.4, 3.39, 4.4, 4.4, 6.64, 9.75, 9.6, 10.4, 9.75, 10.6, 8.85, 6.0, 2.35, 3.49, 4.12, 8.47, 13.98, 17.38, 16.12, 13.48, 10.6, 7.47, 5.65, -2.4, -14.39, -13.2, -11.53, -10.12, -8.85, -9.17, -8.44, -7.54, -8.01, -8.01, -8.01, -11.4, -11.4, -11.09, -11.09, -11.06, -10.4, -10.7, -10.7, -10.7, -10.65, -10.23, -10.23, -10.23, -9.78, -9.78, -9.02, -9.02, -8.5, -8.26, -7.71, -7.11, -6.9, -6.28, -6.28, -5.45, -5.45, -5.45, -4.76, -5.02, -4.27, -4.52, -4.52, -3.69, -3.69, -3.93, -3.0, -3.0, -3.0, -3.22, -3.22, -3.12, -2.2, -2.2, -2.13, -2.13, -2.24, -2.16, -1.09, -1.16, -1.16, -1.11, 0.0, 0.0, 0.0, 0.0, 0.0, 0.0, 1.05, 1.0, 1.0, 1.05, 1.2, 1.26, 1.33, 1.47, 3.25, 4.4, 4.0, 6.95, 9.2, 9.75, 10.41, 9.67, 6.94, 3.25, 2.72, 2.15, 2.88, 6.11, 9.69, 15.74, 16.47, 13.28, 10.2, 8.62, 7.46, 3.59, -11.16, -15.04, -13.7, -10.73, -8.53, -8.85, -9.62, -8.85, -7.54, -7.54, -7.54, -11.09, -11.09, -11.09, -11.09, -10.4, -10.4, -10.4, -10.7, -10.35, -9.95, -9.95, -9.95, -9.5, -9.5, -9.5, -9.02, -9.02, -8.26, -8.26, -7.71, -7.11, -6.9, -6.09, -6.09, -6.09, -5.45, -5.45, -4.76, -5.02, -5.02, -4.27, -4.52, -4.52, -3.69, -3.93, -3.93, -3.93, -3.93, -3.22, -3.12, -3.12, -3.02, -3.25, -3.14, -2.13, -2.24, -2.16, -2.16, -2.28, -1.16, -1.11, -1.07, -1.07, 0.0, 0.0, 0.0, 0.0, 0.0, 0.0, 0.0, 1.0, 1.05, 1.2, 1.26, 1.47, 0.0, 0.0, 4.2, 6.95, 8.8, 9.75, 10.6, 8.22, 3.04, 3.14, 0.0, 2.35, 3.3, 5.98, 8.77, 11.04, 13.15, 14.0, 13.42, 11.53, 7.81, 4.91, -7.0, -14.75, 0.0, -8.85, -8.85, -9.42, -9.42, -8.53, -8.53, -8.53, -8.53, -11.09, -11.09, -11.09, -10.43, -10.4, -10.4, -10.4, -10.06, -9.66, -9.95, -9.95, -9.95, -9.5, -9.5, -9.5, -8.76, -8.76, -8.26, -8.26, -7.71, -7.48, -6.9, -6.69, -6.09, -6.09, -5.45, -5.45, -5.45, -5.02, -5.02, -5.02, -4.52, -4.52, -4.52, -4.81, -4.81, -3.93, -3.93, -4.08, -3.12, -3.02, -3.02, -3.14, -3.14, -2.13, -2.24, -2.16, -2.16, -2.28, -2.28, -1.11, -1.11, -1.07, -1.18, 0.0, 0.0, 0.0, 0.0, 0.0, 0.0, 0.0, 0.0, 1.2, 1.26, 1.26, 0.0, 0.0, 4.4, 4.4, 8.8, 9.2, 9.6, 3.68, 2.93, 3.04, 2.63, 2.72, 5.63, 6.6, 8.29, 9.17, 10.54, 16.63, 17.59, 14.12, 8.33, 3.33, -12.96, -5.8, 0.0, 0.0, -5.4, -8.22, -9.3, -7.9, 0.0, 0.0, 0.0, -10.76, -10.76, -10.76, -10.09, -10.09, -10.09, -10.09, -9.66, -9.66, -9.66, -9.66, -9.23, -9.23, -9.23, -8.76, -8.76, -8.76, -8.26, -8.26, -7.48, -7.48, -6.69, -6.69, -6.09, -6.09, -6.09, -5.45, -5.45, -5.73, -5.02, -5.02, -5.48, -5.48, -4.66, -4.81, -4.81, -4.81, -3.81, -4.08, -3.94, -3.02, -2.92, -3.14, -3.14, -2.06, -2.24, -2.16, -2.16, -2.08, -2.28, -1.11, -1.11, -1.11, -1.18, -1.14, -1.14, -1.22, 0.0, 0.0, 0.0, 0.0, 0.0, 0.0, 0.0, 1.2, 0.0, 0.0, 3.11, 5.46, 8.18, 6.95, 4.6, 3.53, 2.93, 5.6, 4.81, 4.98, 4.24, 7.1, 7.82, 9.39, 10.15, 14.22, 16.4, 12.86, 6.42, -13.41, -5.29, -3.68, 0.0, 0.0, 0.0, -9.6, -9.6, 0.0, 0.0, 0.0, 0.0, -10.76, -10.76, -10.76, -10.09, -10.09, -10.09, -9.38, -9.38, -9.38, -9.66, -9.66, -9.23, -9.23, -9.23, -8.76, -9.02, -8.76, -8.26, -8.01, -7.48, -7.25, -6.69, -6.69, -6.69, -6.09, -6.09, -6.09, -5.45, -5.73, -5.73, -5.18, -5.48, -5.48, -5.48, -4.81, -4.81, -4.81, -4.66, -4.08, -3.94, -3.94, -3.14, -3.14, -3.04, -3.29, -2.24, -2.16, -2.16, -2.08, -2.28, -2.28, -1.11, -1.11, -1.18, -1.18, -1.14, -1.22, -1.16, -1.11, 0.0, 0.0, 0.0, 0.0, 0.0, 0.0, 0.0, 0.0, 3.25, 5.7, 5.7, 5.7, 4.4, 0.0, 3.53, 2.93, 3.04, 2.54, 4.81, 7.13, 9.44, 9.6, 9.6, 11.06, 9.84, 8.21, 1.23, -2.98, -8.93, -4.8, 0.0, 0.0, -8.22, -11.18, -10.73, 0.0, -0.0, -0.0, -0.0, -10.76, -10.44, -9.78, -9.78, -9.78, -9.78, -9.09, -9.38, -9.38, -9.38, -8.96, -8.96, -9.23, -9.5, -9.02, -8.76, -8.26, -8.01, -8.01, -7.25, -7.25, -7.25, -6.69, -6.69, -6.09, -6.09, -6.09, -5.45, -5.91, -5.91, -5.18, -5.18, -5.48, -5.48, -5.63, -4.81, -4.81, -4.97, -4.08, -3.94, -3.94, -4.1, -3.14, -3.04, -3.29, -3.18, -3.18, -2.16, -2.08, -2.28, -2.28, -2.28, -1.11, -1.18, -1.18, -1.14, -1.09, -1.16, -1.11, -1.11, 0.0, 0.0, 0.0, 0.0, 0.0, 0.0, 0.0, 0.0, 0.0, 3.25, 3.39, 3.39, 0.0, -4.4, 0.0, 0.0, 0.0, 5.8, 6.9, 8.66, 9.16, 9.16, 8.31, 5.81, 1.14, 0.0, 0.0, -5.4, -10.0, -7.9, -4.15, -6.2, -11.62, -11.18, -7.59, -0.0, -0.0, -0.0, -10.12, -10.12, -9.78, -9.78, -9.78, -9.42, -9.09, -9.09, -9.09, -8.96, -9.23, -9.23, -9.5, -8.76, -8.76, -8.76, -8.01, -8.01, -7.77, -7.25, -7.25, -7.25, -6.69, -6.69, -6.09, -6.09, -6.09, -5.62, -5.91, -5.91, -5.91, -5.91, -5.48, -5.48, -5.63, -5.63, -4.66, -4.97, -4.81, -3.94, -3.81, -4.1, -3.96, -3.04, -3.04, -3.18, -3.18, -3.18, -3.18, -2.28, -2.28, -2.28, -2.28, -1.23, -1.18, -1.14, -1.09, -1.04, -1.11, -1.11, -1.05, 0.0, 0.0, 0.0, 0.0, 0.0, 0.0, 0.0, 0.0, 0.0, 0.0, 0.0, 0.0, 0.0, -3.25, 0.0, 0.0, 3.04, 5.8, 7.78, 8.38, 8.87, 8.57, 2.85, 1.11, 1.11, 3.28, 6.6, -12.07, -11.21, -7.26, -10.37, -11.03, -9.67, -7.59, -3.25, -3.25, -3.25, -9.48, -9.48, -9.48, -9.48, -9.78, -9.42, -9.09, -9.09, -9.38, -9.23, -9.23, -9.23, -9.23, -8.76, -8.76, -8.51, -8.01, -8.01, -7.77, -7.25, -7.25, -7.25, -6.69, -6.69, -6.09, -6.28, -6.28, -6.28, -5.91, -5.91, -5.91, -5.91, -5.48, -5.31, -5.63, -5.63, -4.66, -4.97, -4.81, -4.81, -3.81, -4.1, -3.96, -3.96, -3.04, -2.93, -3.18, -3.18, -3.18, -3.18, -3.47, -2.37, -2.28, -2.19, -2.33, -1.14, -1.09, -1.04, -0.99, -1.11, -1.05, -1.0, -0.94, -1.07, -1.07, 0.0, 0.0, -1.49, -4.6, -7.27, 0.0, 0.0, 0.0, 0.0, 0.0, 0.0, 0.0, 5.4, 5.6, 7.51, 9.17, 10.82, 7.58, 7.06, 5.7, 3.81, 10.46, 12.72, -12.07, -11.03, -10.6, -11.18, -7.9, -7.9, -6.44, -4.6, -4.6, -4.6, -9.48, -9.48, -9.48, -9.48, -9.48, -9.42, -9.42, -9.38, -8.96, -8.96, -8.96, -9.23, -8.51, -8.51, -8.51, -8.51, -8.01, -8.01, -8.01, -7.25, -7.48, -7.48, -6.9, -6.9, -6.9, -6.28, -6.47, -6.47, -6.6, -5.91, -5.91, -6.24, -6.05, -5.31, -5.63, -5.46, -5.46, -4.97, -4.81, -4.81, -3.81, -3.81, -3.96, -3.96, -3.04, -2.93, -2.93, -3.18, -3.18, -3.18, -3.18, -3.47, -2.28, -2.19, -2.1, -2.23, -2.13, -1.04, -0.99, -0.99, -1.05, -1.0, -0.94, -0.94, -1.14, -1.14, -1.32, -1.58, -4.6, -4.8, -4.8, -4.8, -4.8, -3.25, 0.0, 0.0, 3.39, 6.45, 7.51, 8.85, 8.85, 9.48, 9.95, 9.51, 7.3, 5.41, 16.05, 7.24, -0.0, -10.38, -9.58, -8.22, -6.45, -6.71, -5.75, -5.06, -5.06, -5.06, -9.48, -9.48, -9.48, -9.48, -9.42, -9.42, -9.42, -9.09, -8.96, -8.96, -8.96, -8.96, -8.51, -8.51, -8.51, -8.51, -8.01, -8.01, -8.01, -7.48, -7.48, -7.48, -6.9, -7.11, -7.11, -6.47, -6.47, -6.6, -6.6, -5.91, -5.91, -6.05, -6.05, -5.31, -5.31, -5.46, -5.46, -4.51, -4.81, -4.65, -3.81, -3.81, -3.68, -3.96, -3.04, -2.93, -2.93, -2.93, -2.93, -3.18, -3.18, -3.18, -2.28, -2.19, -2.1, -2.02, -2.13, -2.04, -1.04, -0.99, -0.94, -1.0, -1.0, -1.0, -1.0, -1.14, -1.2, -2.69, -3.15, -3.39, -4.8, -4.8, -3.39, -3.25, -3.25, -4.6, -4.6, 0.0, 3.68, 6.7, 10.41, 8.58, 8.0, 5.53, 3.55, 1.75, 12.64, 7.36, 1.84, -5.0, -6.76, -7.26, -5.2, -6.97, -5.75, -5.29, -5.29, -5.29, -9.48, -9.48, -9.48, -9.13, -9.13, -9.13, -9.13, -8.69, -8.69, -8.69, -8.69, -8.25, -8.51, -8.51, -8.51, -8.51, -8.01, -8.26, -8.26, -7.71, -7.71, -7.71, -7.11, -7.11, -7.11, -6.47, -6.47, -6.6, -5.91, -5.91, -5.73, -5.73, -5.31, -5.31, -5.15, -5.46, -5.46, -4.51, -4.51, -4.65, -3.81, -3.81, -3.68, -3.68, -3.68, -3.04, -2.93, -2.93, -2.93, -2.93, -2.93, -2.08, -2.0, -2.0, -2.1, -2.02, -1.93, -1.93, -2.04, -0.99, -0.99, -0.94, -1.0, -1.0, -1.0, -1.05, -1.2, -2.69, -3.15, -3.25, -4.6, -4.8, 0.0, 0.0, 0.0, 0.0, -3.11, -3.25, 0.0, 5.2, 5.8, 4.38, 0.0, 0.0, 0.0, 0.0, 0.0, 5.37, -0.0, -3.53, -6.16, -6.76, -8.53, -9.3, -7.9, -7.9, -7.9, -7.9, -9.48, -9.48, -9.48, -9.13, -9.13, -9.13, -9.13, -8.42, -8.42, -8.69, -8.69, -8.51, -8.51, -8.51, -8.76, -8.76, -8.26, -8.26, -8.26, -7.71, -7.71, -7.71, -7.11, -7.11, -6.9, -6.47, -6.28, -6.28, -6.4, -5.73, -5.73, -5.73, -6.05, -5.15, -5.15, -5.15, -5.28, -4.51, -4.51, -4.65, -4.65, -3.81, -3.68, -3.68, -3.68, -3.96, -3.82, -2.93, -2.93, -2.93, -2.93, -3.06, -2.94, -2.0, -1.92, -2.02, -1.93, -1.93, -1.84, -1.94, -1.94, -0.94, -0.89, -1.05, -1.05, -2.06, -2.17, -2.46, -2.83, -3.25, -4.6, -4.6, -4.4, 0.0, 0.0, 0.0, 0.0, 0.0, 0.0, 8.22, 0.0, 0.0, -2.43, -1.93, -3.13, -1.46, -1.4, -5.8, -3.16, -5.15, -8.1, -7.19, -10.12, -12.04, -12.14, -12.52, -12.52, -12.52, -9.17, -9.17, -8.83, -9.13, -9.13, -9.13, -8.74, -8.42, -8.42, -8.69, -8.25, -8.51, -8.51, -8.76, -8.76, -8.26, -8.26, -8.26, -8.26, -7.71, -7.71, -7.48, -7.71, -7.11, -6.9, -6.28, -6.28, -6.09, -6.4, -5.73, -5.73, -5.73, -5.73, -5.15, -5.15, -4.98, -5.28, -5.28, -4.36, -4.36, -4.65, -4.65, -3.81, -3.68, -3.68, -3.68, -3.82, -3.82, -3.82, -3.82, -2.82, -2.71, -2.94, -2.82, -2.82, -1.84, -2.02, -1.93, -1.84, -1.75, -1.84, -1.84, -1.84, -1.84, -2.06, -2.06, -2.17, -2.17, -2.46, -4.0, -4.2, -7.9, -7.27, -2.97, -2.97, 0.0, 0.0, 0.0, 0.0, 5.2, 0.0, 0.0, -2.09, -3.59, -3.01, -2.9, -1.24, -1.51, -8.0, -16.05, -14.39, -13.19, -13.01, -12.72, -4.1, 0.0, 0.0, 0.0, -9.17, -9.17, -8.83, -8.83, -8.83, -9.13, -8.74, -8.74, -8.42, -8.69, -8.25, -8.51, -8.51, -8.76, -8.76, -8.26, -8.26, -8.26, -8.26, -7.71, -7.48, -7.48, -7.71, -7.11, -6.9, -6.9, -6.09, -6.09, -6.4, -6.4, -5.73, -5.73, -5.55, -5.86, -5.15, -4.98, -4.98, -5.11, -5.11, -4.36, -4.65, -4.65, -4.65, -4.65, -3.68, -3.68, -3.82, -3.82, -3.82, -3.82, -3.68, -2.71, -2.71, -2.82, -2.71, -2.71, -2.71, -1.93, -1.84, -1.75, -1.75, -1.84, -1.84, -1.84, -1.84, -2.06, -2.17, -2.17, -2.17, -3.52, -3.7, -6.2, -5.7, -7.59, -5.21, -5.46, -2.39, 0.0, 0.0, 0.0, 0.0, 0.0, -2.02, -3.07, -1.5, 0.0, 0.0, 0.0, 0.0, -4.55, -9.2, -9.92, -3.58, 0.0, 2.13, 4.1, 4.1, 4.1, -8.83, -8.83, -8.83, -8.83, -8.83, -8.46, -8.46, -8.74, -8.42, -8.69, -8.25, -8.51, -8.51, -8.51, -8.51, -8.01, -8.01, -8.01, -8.01, -7.48, -7.48, -7.48, -7.48, -7.48, -6.9, -6.69, -6.09, -6.4, -6.4, -6.4, -5.73, -5.55, -5.86, -5.86, -4.98, -4.98, -4.98, -5.11, -5.11, -4.36, -4.36, -4.65, -4.65, -4.49, -3.68, -3.68, -3.55, -3.55, -3.82, -3.68, -3.68, -2.71, -2.71, -2.6, -2.82, -2.71, -2.71, -2.59, -2.7, -2.7, -1.75, -1.67, -1.67, -1.84, -1.84, -1.84, -2.17, -2.17, -2.17, -2.17, -2.28, -3.3, -5.21, -6.45, -5.21, -5.46, -3.11, 0.0, 0.0, 0.0, 0.0, 0.0, -1.96, -1.63, -1.56, 0.0, 1.27, 2.32, 2.55, 1.34, 0.0, 0.0, 0.0, 2.02, 3.56, 3.56, 3.56, 3.56, -8.83, -8.83, -8.83, -8.83, -8.83, -8.46, -8.46, -8.74, -8.42, -8.69, -8.25, -8.51, -8.51, -8.51, -8.51, -8.01, -8.01, -8.01, -8.01, -7.48, -7.48, -7.48, -7.48, -7.48, -6.9, -6.69, -6.09, -6.4, -6.4, -6.4, -5.73, -5.55, -5.86, -5.86, -4.98, -4.98, -4.98, -5.11, -5.11, -4.36, -4.36, -4.65, -4.65, -4.49, -3.68, -3.68, -3.55, -3.55, -3.82, -3.68, -3.68, -2.71, -2.71, -2.6, -2.82, -2.71, -2.71, -2.59, -2.7, -2.7, -1.75, -1.67, -1.67, -1.84, -1.84, -1.84, -2.17, -2.17, -2.17, -2.17, -2.28, -3.3, -5.21, -6.45, -5.21, -5.46, 0.0, 0.0, 0.0, 0.0, 0.0, 0.0, 0.0, -1.58, 0.0, 0.0, 2.62, 3.45, 3.45, 3.65, 3.71, 4.03, 3.12, 3.39, 1.83, 1.83, 1.83, 1.83]}]